GFSFLT2_250_spd_000.txt.gz
Wind_Speed
81 81 82 79 85 84 90 91 90 85 87 93 97 95 94 83 82 74 68 61 63 57 52 49 49 53 52 53 48 42 39 37
80 79 84 82 86 91 92 90 83 86 93 94 96 85 79 77 71 65 59 61 58 49 45 48 51 51 45 41 40 40 39 37
80 80 84 86 87 86 83 81 85 91 86 84 85 76 76 68 64 65 62 61 55 51 48 47 47 48 51 45 42 41 40 40
79 80 83 86 82 84 84 88 86 86 88 85 72 74 67 63 63 62 62 59 51 49 49 52 50 50 49 43 45 47 46 43
81 84 78 75 79 81 82 81 85 81 81 71 68 67 64 69 61 58 60 57 57 55 51 49 53 52 48 44 46 47 49 48
78 75 76 76 80 78 81 81 75 71 65 62 61 63 65 65 63 62 60 61 56 55 55 56 55 53 51 51 49 48 48 51
72 75 76 75 81 78 74 70 68 61 62 61 60 59 61 63 63 63 62 60 61 59 61 64 62 57 54 55 57 55 54 53
73 77 78 78 79 69 68 61 62 60 56 53 53 56 59 65 66 65 64 65 66 66 69 70 68 63 60 60 61 62 59 57
81 78 77 75 64 58 52 58 53 50 42 41 51 63 67 67 68 69 72 72 71 72 73 73 72 66 65 65 66 66 64 61
77 73 66 59 51 45 36 55 60 62 62 66 64 71 72 70 73 78 77 76 75 76 78 78 76 71 72 73 72 72 72 72
63 57 54 48 39 33 48 50 56 61 71 69 70 78 79 79 83 84 83 82 83 85 83 80 77 76 72 74 76 77 77 78
50 50 46 45 46 48 54 56 64 73 75 80 84 86 86 88 90 89 87 89 88 85 84 82 80 79 81 83 87 88 87 88
47 45 47 50 52 55 58 63 71 76 80 86 90 92 94 91 88 89 89 87 87 87 88 89 90 90 91 92 95 97 99 101
47 49 53 57 59 61 65 71 72 78 82 84 86 86 87 87 88 88 88 91 91 91 91 93 96 97 98 99 100 103 105 109
51 54 55 57 59 61 64 67 70 74 77 78 81 83 85 87 88 90 93 93 95 96 98 98 102 109 112 114 115 114 115 116
49 50 53 55 56 58 60 63 67 72 75 77 80 84 88 90 92 93 96 96 99 102 107 111 113 117 120 123 127 128 128 124
45 47 49 53 56 60 62 65 70 74 77 79 81 85 86 88 90 94 99 104 107 111 117 120 123 128 130 131 134 133 130 124
47 50 53 56 59 62 64 67 69 72 75 76 77 81 86 90 95 100 105 111 114 120 125 129 131 135 135 132 130 124 124 120
51 53 56 58 60 62 63 66 68 71 74 78 81 85 90 96 102 108 113 118 122 127 131 132 128 126 122 121 120 117 114 108
53 55 57 59 61 63 65 68 71 73 77 81 85 91 97 104 110 115 119 122 125 128 126 121 120 115 112 109 104 100 95 90

GFSFLT2_250_spd_006.txt.gz
Wind_Speed
74 73 69 75 69 70 71 75 85 86 82 77 81 81 80 89 90 83 81 79 84 84 72 62 60 53 47 44 43 37 35 34
67 76 67 65 76 82 84 85 79 73 71 75 74 80 82 88 82 82 84 86 83 73 62 66 58 49 42 44 41 37 37 36
60 64 69 68 69 69 66 78 77 77 82 84 92 86 85 81 83 83 86 84 71 66 67 57 52 43 40 40 36 37 37 38
78 82 69 71 78 74 70 75 83 85 78 80 80 84 83 84 88 87 83 79 73 70 58 52 50 47 44 41 43 43 43 44
70 74 83 85 73 70 72 78 76 79 83 84 78 82 89 86 91 90 81 75 77 62 53 50 50 52 54 48 49 50 48 48
61 56 60 68 73 71 72 71 70 76 77 80 84 87 88 84 84 79 72 64 60 53 59 55 61 59 56 55 57 57 58 61
65 71 68 67 66 66 66 71 77 77 79 80 86 82 83 81 72 70 63 58 59 65 63 64 63 59 66 69 66 70 73 75
57 58 62 61 65 71 75 79 77 79 79 76 72 72 72 71 73 64 62 66 67 69 70 72 75 73 80 81 83 84 85 88
57 63 68 70 71 73 78 80 79 74 71 72 65 62 65 63 64 65 68 69 72 76 77 74 72 88 88 90 92 93 92 85
59 62 66 69 68 67 66 66 65 71 66 61 61 61 59 61 66 70 72 73 72 74 81 87 90 92 95 95 93 91 86 83
55 55 58 58 55 55 57 58 57 56 58 62 61 60 62 66 68 75 75 80 86 88 89 91 91 90 90 90 90 88 86 85
50 50 48 49 52 51 50 51 55 59 62 63 63 65 68 71 74 77 82 86 88 88 87 87 87 88 89 89 88 84 80 80
45 47 47 46 47 50 52 54 57 60 63 65 66 67 69 71 72 75 78 80 83 84 86 87 88 85 85 83 82 83 85 88
39 40 43 44 46 50 53 54 56 58 60 62 65 68 71 74 77 79 81 83 83 85 85 85 85 80 82 86 88 94 98 101
37 39 41 43 45 48 51 54 57 60 64 66 68 71 74 76 79 81 82 83 85 84 81 81 86 91 90 95 101 105 106 111
34 37 40 43 47 51 55 58 60 64 67 69 72 74 77 79 80 81 82 83 81 79 84 90 92 98 101 108 109 112 114 116
36 41 44 48 52 56 59 62 65 67 70 73 74 74 73 71 71 72 74 76 82 88 91 94 100 104 110 114 118 120 122 122
39 43 47 50 54 57 60 63 64 65 65 64 64 64 64 66 68 73 78 84 88 93 98 102 106 112 116 119 121 122 119 116
42 46 48 50 51 53 55 58 60 62 63 64 66 66 68 72 77 81 87 91 95 97 103 107 113 115 118 117 114 113 110 108
46 47 50 52 54 58 61 62 63 65 66 67 68 69 72 76 81 87 91 95 98 103 109 111 113 114 113 111 108 105 102 98

GFSFLT2_250_spd_009.txt.gz
Wind_Speed
67 69 65 61 75 74 74 68 65 71 73 75 73 68 68 77 82 83 80 86 82 78 75 81 84 81 72 70 66 57 46 43
67 73 63 70 61 68 74 75 74 79 72 72 75 70 73 76 77 84 84 79 78 80 82 84 79 78 69 62 59 55 44 36
67 70 78 70 77 83 81 77 81 79 81 76 82 88 83 77 78 76 77 80 80 82 85 79 76 67 61 56 57 50 45 42
76 82 83 83 80 82 72 67 74 76 80 81 80 79 80 75 80 82 84 84 86 87 80 76 69 60 55 52 54 51 51 52
71 73 75 80 78 80 81 82 83 84 86 92 80 79 81 82 84 84 81 82 82 77 73 71 63 60 55 58 51 56 56 51
75 77 80 80 82 81 82 85 87 84 81 78 76 78 82 82 80 81 82 79 76 76 67 65 63 59 57 61 57 55 55 57
83 87 85 86 88 80 73 70 71 76 79 80 81 78 80 82 82 83 84 82 79 71 67 64 62 62 63 61 58 65 63 73
72 75 76 75 78 81 80 81 86 83 79 82 80 83 86 82 85 82 78 72 73 68 66 67 65 66 67 67 68 77 82 84
60 62 63 67 64 65 70 75 79 83 81 81 83 82 80 82 78 71 70 71 70 70 69 72 69 80 79 78 82 79 82 81
59 59 62 67 70 71 73 72 73 75 77 79 81 78 80 74 73 71 69 69 71 70 72 77 83 83 85 88 84 83 80 79
59 58 61 62 61 62 65 67 71 73 73 75 72 69 68 68 69 71 72 71 71 72 73 73 74 78 77 78 81 81 82 82
51 52 54 57 59 62 64 65 66 65 63 61 61 64 66 67 66 68 69 70 71 73 74 77 79 78 80 81 85 85 85 84
47 49 52 54 55 56 55 54 54 54 54 55 58 61 65 67 68 70 74 79 79 81 82 85 86 87 84 83 86 87 84 82
44 46 46 45 43 43 45 46 49 52 57 61 65 69 71 74 77 80 82 84 86 87 87 85 86 84 84 80 78 83 89 90
34 32 32 35 39 43 46 50 55 59 63 67 70 75 78 81 83 85 87 89 88 86 82 79 78 78 83 85 86 89 92 99
27 30 33 38 42 46 50 53 54 58 60 62 66 68 71 73 74 74 74 73 73 73 76 78 83 87 89 95 97 100 103 104
27 31 36 40 44 48 51 53 54 55 57 59 62 64 66 66 67 68 70 71 73 77 81 87 88 93 99 102 107 112 115 117
30 34 38 40 43 47 50 53 55 59 59 60 63 66 67 68 68 69 72 75 79 82 86 90 94 101 107 112 116 120 121 121
33 37 41 43 47 51 53 54 56 56 59 62 65 66 66 67 69 73 77 80 83 88 93 100 106 111 115 116 117 116 114 111
38 43 48 51 53 57 59 60 61 62 63 68 70 70 69 71 75 80 83 87 91 98 104 109 111 112 112 110 106 107 107 104

GFSFLT2_250_spd_012.txt.gz
Wind_Speed
49 58 55 55 57 59 62 57 59 62 58 65 66 61 63 75 80 74 70 75 81 82 80 73 71 79 82 84 84 86 79 74
43 49 49 55 53 52 55 55 59 57 56 58 64 68 75 77 77 79 82 82 85 84 81 79 82 82 80 82 81 82 83 61
49 44 54 52 48 49 58 65 64 62 66 69 76 85 81 73 77 81 86 83 81 81 80 84 84 84 88 90 83 83 69 61
48 49 51 51 56 67 68 72 74 77 73 76 71 84 80 78 82 84 85 80 83 83 85 87 88 91 85 86 80 75 67 59
61 65 65 68 69 67 69 72 73 75 83 77 76 75 84 84 82 82 85 84 90 89 91 89 87 89 88 81 72 67 64 58
69 67 70 70 72 68 67 73 79 80 81 87 86 90 85 76 81 84 91 95 94 93 87 92 94 92 78 72 67 67 63 63
80 80 79 80 76 74 73 73 79 82 82 86 88 87 88 88 87 93 98 99 98 95 95 91 86 76 71 67 71 69 67 62
75 84 85 89 88 87 85 89 91 87 86 86 89 90 93 95 97 96 95 91 94 94 91 85 76 72 73 67 66 66 71 68
66 70 78 88 89 89 90 94 97 95 92 96 99 98 92 95 96 93 91 90 90 86 79 75 73 73 69 70 69 71 73 72
49 55 66 75 87 86 87 86 86 88 89 90 88 88 92 88 88 88 86 82 77 77 75 74 72 72 73 72 69 74 74 75
47 52 57 59 61 67 72 75 77 80 82 83 84 80 81 80 77 73 72 72 72 72 74 76 77 77 75 76 76 80 83 80
51 56 59 60 64 68 68 70 69 68 71 71 72 71 69 66 65 69 72 74 74 76 78 81 83 85 82 82 81 86 87 84
46 48 50 53 55 57 57 59 60 61 61 59 60 59 63 66 69 71 73 75 77 78 78 79 81 83 81 80 77 78 83 83
43 44 45 47 49 50 49 47 47 47 50 55 58 62 64 66 67 68 70 71 72 72 71 69 71 73 72 72 71 73 76 80
39 38 37 36 35 36 37 39 43 47 51 56 58 61 64 66 67 67 68 69 70 70 68 68 67 71 75 78 81 83 85 89
28 27 28 29 32 35 38 38 40 46 48 52 56 58 62 64 65 67 68 69 70 71 72 74 77 78 83 87 90 93 94 95
24 24 27 29 32 35 40 44 45 50 54 57 60 62 63 63 65 68 71 74 74 76 77 79 83 88 90 94 98 103 107 111
24 26 30 33 36 41 45 49 52 55 56 60 65 66 66 67 70 72 74 78 80 81 84 87 91 94 100 103 107 110 112 113
27 32 37 41 44 47 51 54 56 62 64 66 69 71 71 73 75 76 79 83 86 89 93 96 100 103 107 108 108 107 104 101
32 36 41 47 51 54 57 60 64 68 71 73 74 76 77 78 80 81 85 90 94 98 102 106 109 108 105 102 97 97 95 95

GFSFLT2_250_spd_015.txt.gz
Wind_Speed
42 46 43 56 61 62 64 63 59 57 53 51 51 54 53 58 62 59 68 68 75 83 80 72 77 80 79 79 81 82 83 82
36 43 50 62 62 58 56 56 51 50 52 52 55 58 63 60 61 66 71 71 78 81 79 90 82 76 81 81 79 86 90 93
43 44 50 58 57 53 53 50 49 51 51 54 61 67 62 61 68 74 79 79 79 76 87 84 75 77 82 91 90 94 87 93
40 44 44 49 53 52 51 51 55 52 57 61 61 58 66 70 73 71 76 74 82 87 86 82 86 88 93 95 92 100 98 92
49 54 54 59 57 53 53 54 55 56 60 63 66 68 73 73 76 80 77 81 86 91 92 95 89 93 98 95 101 94 91 86
51 53 52 67 56 58 64 64 65 64 66 64 71 71 76 79 79 81 84 87 85 83 91 94 95 93 94 94 95 91 89 86
62 64 62 63 64 63 70 71 75 78 80 76 78 82 83 81 82 85 90 91 93 97 99 101 99 99 101 99 100 92 88 80
62 69 77 72 72 74 78 81 81 81 81 85 89 93 91 94 95 98 99 101 102 99 94 95 99 99 98 92 82 79 77 77
57 72 71 73 78 82 84 86 86 90 93 96 98 100 101 97 99 96 95 96 96 99 98 100 100 96 88 84 80 80 82 81
59 68 73 80 81 84 87 84 85 88 92 91 91 92 92 93 97 96 94 92 91 92 93 92 86 84 83 83 80 80 82 82
47 53 61 66 66 70 78 81 79 84 84 79 79 82 86 89 89 89 88 87 85 82 79 79 80 81 81 81 78 76 76 75
45 48 51 59 59 61 61 63 67 69 74 76 76 80 75 75 78 77 77 76 76 76 76 76 76 75 77 78 76 73 73 72
49 45 49 54 59 62 64 65 64 63 65 69 71 72 70 68 68 69 71 72 73 74 73 74 76 78 77 75 76 76 75 76
51 49 48 48 52 54 59 59 59 57 57 56 58 58 57 56 60 63 66 69 71 71 72 75 77 77 77 75 75 77 79 81
47 46 48 49 49 47 45 44 44 47 48 48 50 53 56 60 63 65 67 68 70 73 75 76 76 77 78 79 80 80 83 89
39 40 37 38 37 36 38 39 40 41 44 47 51 55 57 62 66 69 72 74 76 77 79 80 80 81 83 86 89 91 91 95
31 32 31 33 37 38 38 38 41 43 47 51 54 58 61 65 69 73 78 80 81 81 82 83 86 89 92 95 98 103 104 103
28 31 33 36 38 40 42 45 48 51 54 57 61 65 68 73 77 80 83 81 81 84 85 90 95 97 100 103 105 104 100 99
29 33 36 41 44 45 47 50 53 55 59 64 69 72 75 79 82 83 81 82 85 90 94 97 101 105 109 109 105 103 103 104
29 35 40 46 49 51 52 55 60 63 67 68 70 76 80 84 85 84 84 84 89 95 100 104 109 111 108 105 103 104 105 106

GFSFLT2_250_spd_018.txt.gz
Wind_Speed
47 47 50 49 49 53 54 58 64 61 61 59 57 57 53 51 52 55 54 57 62 64 65 70 71 75 76 79 82 80 83 74
37 31 45 35 39 51 57 61 65 61 57 59 54 50 50 51 53 55 60 65 65 65 69 74 78 81 80 85 83 82 73 86
51 54 39 41 51 57 60 59 66 61 61 55 49 49 48 54 56 57 62 57 68 69 74 79 76 76 77 77 78 85 92 91
61 59 57 54 66 63 72 62 64 61 48 51 49 51 57 57 57 62 68 70 72 72 69 78 83 80 84 89 92 96 96 97
54 61 59 67 64 61 61 68 69 67 61 61 55 54 57 60 58 61 63 70 76 81 84 84 87 90 94 98 97 103 105 103
34 53 67 61 53 57 62 66 59 63 68 63 68 67 61 70 71 72 81 81 82 88 94 95 98 104 108 105 99 96 98 95
50 55 59 61 56 59 61 65 69 70 69 72 73 78 76 79 83 87 87 90 92 99 103 106 103 94 92 91 91 89 89 88
44 57 55 62 65 68 64 61 66 72 74 78 81 81 83 86 91 94 96 98 99 90 89 91 96 98 98 98 94 94 94 92
43 58 62 63 69 77 70 71 76 82 84 86 84 87 91 93 94 94 95 94 97 93 98 92 91 85 87 89 91 91 88 90
50 52 56 64 71 72 76 74 77 79 86 87 90 89 91 94 92 87 86 87 87 88 87 83 85 86 87 86 83 84 84 83
52 51 56 56 59 65 74 83 86 92 77 78 83 80 79 78 81 83 80 79 76 78 79 80 78 77 77 78 78 78 80 81
53 60 57 56 57 56 58 63 70 75 73 74 77 78 81 82 77 76 75 74 74 73 73 74 75 76 78 79 80 80 81 82
55 54 52 51 50 49 51 54 61 65 69 72 72 75 77 74 72 69 68 69 69 70 71 74 77 79 83 85 85 83 82 81
43 45 47 50 50 52 55 57 59 61 64 66 67 69 68 66 64 65 65 67 70 73 75 79 82 84 85 82 80 82 85 89
39 39 44 47 47 51 53 55 55 55 54 56 58 59 60 61 63 66 67 69 73 76 80 84 86 85 84 83 83 85 88 94
35 36 42 43 43 44 44 45 46 48 53 56 58 60 62 65 67 68 70 73 76 81 85 87 87 86 86 86 91 94 98 101
32 29 33 35 35 35 39 42 46 50 55 59 61 64 69 70 71 72 73 77 82 87 89 88 88 89 90 94 98 101 106 108
25 33 32 33 36 38 41 46 51 55 59 61 62 65 64 64 68 71 76 81 86 89 88 88 88 90 94 98 103 108 110 111
29 32 34 36 39 43 44 48 52 55 57 61 63 64 63 66 72 77 80 83 88 89 89 89 91 95 100 106 110 110 107 105
30 33 37 40 43 47 48 49 52 57 59 60 62 62 67 72 78 81 84 88 92 89 90 92 95 103 108 109 109 105 106 106

GFSFLT2_250_spd_021.txt.gz
Wind_Speed
26 31 43 43 41 42 44 47 54 60 57 53 59 60 59 62 63 59 56 56 53 54 55 57 61 62 62 64 65 68 67 67
28 30 43 38 29 39 49 49 44 46 52 55 63 63 62 60 63 65 59 60 56 60 61 64 63 58 66 70 67 71 73 78
39 40 27 26 40 41 39 45 43 49 61 65 46 51 62 65 63 57 56 57 55 53 56 56 57 62 67 72 78 79 83 87
45 45 47 42 58 50 51 49 54 59 56 60 63 64 73 63 60 58 59 63 61 61 66 73 74 77 82 85 85 92 93 99
52 46 50 50 52 56 61 47 49 60 68 64 66 70 58 68 65 70 68 73 74 79 78 79 83 89 94 95 101 100 104 100
61 59 56 57 61 66 64 60 61 59 60 62 65 69 73 73 69 70 78 81 81 81 88 90 93 95 96 101 101 94 94 97
68 73 67 57 60 65 67 66 58 70 67 66 64 72 70 72 78 83 83 83 86 90 91 97 99 97 98 89 88 89 87 83
70 70 71 67 57 63 69 70 69 65 71 69 72 68 70 81 79 86 91 93 96 89 92 86 88 86 89 89 87 80 77 76
50 62 52 59 65 60 71 78 76 72 76 71 74 79 78 80 85 82 79 86 93 89 83 87 89 94 89 84 74 76 73 78
43 46 47 48 47 54 68 75 76 75 74 80 79 80 87 91 91 88 89 83 80 83 81 83 87 83 82 78 74 77 78 82
46 50 50 49 55 63 67 71 69 73 78 80 84 84 81 78 74 78 79 79 75 79 81 78 78 79 76 78 80 82 85 87
51 53 58 56 61 62 60 64 65 67 67 68 67 65 69 69 72 72 76 76 75 74 75 77 76 78 81 83 84 87 90 93
51 54 53 56 56 58 63 63 60 58 60 60 63 67 68 69 71 71 71 71 74 75 76 76 77 82 85 87 91 93 96 97
54 59 63 62 61 57 59 56 54 56 58 61 63 64 64 64 63 66 70 73 75 76 79 83 85 87 88 90 93 97 98 96
61 61 55 56 56 52 49 51 52 54 56 56 54 54 56 59 64 69 72 75 78 81 83 80 78 83 89 93 96 98 95 94
51 52 52 50 47 47 47 46 44 45 45 47 51 56 61 64 68 71 74 77 79 75 74 78 83 87 91 94 96 93 93 94
44 46 46 45 42 35 35 37 39 40 44 50 56 60 62 62 65 67 68 69 71 75 79 83 87 90 92 90 90 93 97 103
36 33 30 30 32 34 38 40 43 43 48 53 55 57 62 64 64 64 66 70 75 79 83 87 88 91 88 88 93 98 103 105
27 26 25 33 35 39 41 44 48 49 54 57 60 63 65 65 64 68 72 75 78 83 86 87 86 85 88 94 99 102 104 105
31 30 26 35 36 41 46 51 53 54 57 60 63 67 68 65 68 73 76 78 82 87 85 83 85 87 93 98 103 104 104 104

GFSFLT2_250_spd_024.txt.gz
Wind_Speed
59 41 35 46 44 43 44 50 48 51 50 49 53 51 55 57 60 64 62 65 66 68 68 66 61 57 56 54 62 56 51 56
48 42 36 48 44 38 41 47 42 44 49 46 47 44 50 57 57 60 63 68 70 65 53 59 66 62 64 73 64 58 68 68
41 41 53 58 40 46 38 53 43 49 51 49 47 46 54 59 62 61 60 64 60 59 57 63 69 74 71 71 74 75 76 78
43 48 46 42 39 41 46 53 48 50 50 52 52 51 56 58 58 65 57 58 61 66 78 77 69 70 74 79 78 82 83 89
48 51 50 52 51 50 53 49 53 49 49 57 53 50 55 56 57 59 58 69 71 71 75 77 78 87 87 91 89 99 95 94
55 52 52 49 51 53 55 55 56 61 57 58 54 53 59 62 64 64 70 69 73 72 72 78 84 86 88 88 89 86 87 82
54 52 53 50 55 57 59 62 63 60 63 67 56 61 59 59 65 70 71 75 77 84 87 87 93 94 94 83 78 78 78 82
57 54 62 58 61 58 59 61 68 67 68 68 64 70 73 67 68 73 75 80 84 88 87 89 94 90 79 76 79 82 76 74
62 60 61 63 63 63 62 66 65 59 56 72 77 77 75 78 76 79 83 89 92 94 90 85 79 75 77 75 76 76 76 77
56 57 59 66 64 62 61 58 57 63 54 58 65 69 81 81 84 85 89 88 88 83 78 78 77 75 75 75 77 78 79 80
61 55 60 63 65 61 67 59 58 58 63 66 67 71 76 79 71 71 69 71 74 76 78 77 74 74 76 78 80 81 84 88
42 42 47 47 52 62 56 59 62 61 66 69 70 71 71 71 69 68 70 74 75 73 71 72 76 78 79 80 83 85 85 86
46 42 41 49 52 55 60 63 64 71 72 72 69 69 71 65 65 68 69 68 67 67 71 75 78 80 82 82 84 84 85 86
51 53 51 57 57 54 57 59 64 64 66 65 65 60 60 61 60 60 61 63 67 70 71 75 77 76 77 78 79 84 87 90
53 54 51 51 53 58 64 68 65 61 58 57 56 53 51 51 53 57 61 63 65 69 73 74 73 77 80 81 83 87 90 91
43 44 47 54 54 54 56 58 57 55 50 46 44 45 48 51 56 61 63 67 71 72 72 72 77 81 83 85 88 93 93 89
43 45 45 46 48 49 49 49 48 45 45 43 44 47 51 57 61 65 67 70 71 73 71 76 82 85 85 86 89 94 92 89
44 45 44 47 40 38 41 39 40 42 44 44 47 52 57 61 65 68 70 70 69 71 76 79 82 83 86 89 94 94 91 93
42 40 38 35 30 33 38 43 45 45 50 52 54 59 59 62 67 69 68 69 72 75 80 83 85 87 89 95 95 92 94 99
38 31 28 26 27 33 42 48 50 52 55 57 61 58 62 67 69 69 70 73 77 82 84 85 86 89 94 96 94 96 100 103

GFSFLT2_250_spd_027.txt.gz
Wind_Speed
59 60 56 60 55 50 53 54 45 46 50 50 51 53 55 57 58 56 62 59 58 60 62 63 64 65 68 63 62 63 63 59
36 36 50 51 50 43 46 39 40 44 50 55 52 55 55 58 53 55 51 56 54 57 61 63 65 66 61 60 66 66 62 68
31 34 48 51 52 50 41 41 41 41 48 51 54 53 55 52 56 57 52 53 56 57 62 65 60 63 59 55 73 69 70 72
47 57 51 51 50 45 38 47 50 45 50 53 55 60 56 47 55 60 61 62 63 63 65 58 64 68 72 74 73 76 82 81
43 46 54 50 48 43 48 51 48 53 55 60 55 54 51 55 52 54 59 57 62 56 62 68 67 72 76 76 83 88 89 90
44 52 51 53 51 49 51 50 51 51 59 56 58 56 55 60 63 54 60 67 62 67 70 75 75 78 81 87 93 94 92 87
47 49 51 52 56 51 55 55 58 58 59 62 63 62 59 62 61 65 70 69 74 76 79 79 83 89 90 95 92 83 80 74
50 46 50 47 51 51 50 55 57 58 57 57 59 61 64 66 65 71 75 80 84 85 87 88 88 82 79 79 75 74 70 68
54 52 45 50 52 54 56 48 50 58 58 56 54 59 60 61 63 65 69 71 73 78 80 81 82 77 73 75 70 69 72 74
56 55 53 55 52 48 60 57 55 56 63 65 65 67 71 63 66 67 70 75 79 81 79 77 71 70 69 68 68 71 74 75
45 54 52 57 60 58 54 63 68 61 57 57 58 65 68 72 74 76 81 79 80 82 76 70 67 65 66 67 69 72 75 76
31 41 48 55 53 53 56 53 51 60 62 66 72 70 71 73 72 76 78 80 78 72 70 66 61 63 65 69 73 75 73 74
47 49 54 48 52 60 59 55 54 59 61 63 67 67 68 71 72 73 73 68 67 65 59 60 64 66 70 74 75 73 74 78
43 43 43 51 61 56 55 55 57 60 63 65 68 69 73 73 71 71 63 60 57 58 61 64 68 71 73 71 70 74 79 83
43 47 50 52 52 56 53 55 61 58 60 63 66 65 62 62 63 55 53 56 61 63 65 70 72 73 69 71 74 79 83 86
34 35 39 44 43 47 49 50 53 55 55 53 49 47 48 49 48 50 54 60 62 65 68 73 73 73 73 77 82 86 88 88
34 35 37 38 40 43 46 47 50 49 49 48 44 42 47 48 52 56 61 63 64 70 73 71 72 75 78 83 85 88 90 91
36 37 39 41 42 44 45 42 43 44 44 44 46 48 51 52 56 61 63 64 69 73 76 77 76 79 84 87 88 90 92 95
37 39 40 42 44 42 37 36 40 44 44 46 51 55 55 58 62 65 66 69 73 77 79 77 79 84 87 90 93 95 97 98
37 38 43 41 38 37 32 34 36 43 46 52 57 57 58 62 64 67 73 74 78 79 79 79 83 88 91 93 95 98 101 102

GFSFLT2_250_spd_030.txt.gz
Wind_Speed
46 50 50 55 55 57 58 58 60 56 57 58 56 58 57 57 58 56 56 57 58 63 60 61 63 62 58 56 57 60 62 62
39 46 37 31 39 42 45 47 52 49 50 52 50 51 50 52 54 54 55 60 58 62 63 62 62 62 63 64 67 62 64 59
37 43 39 29 19 30 41 44 47 47 42 35 38 44 52 49 49 53 54 56 59 60 59 60 60 60 60 61 59 62 68 73
41 41 34 30 38 41 44 45 46 46 35 45 44 44 47 52 54 58 59 60 53 59 63 64 59 57 58 63 67 71 83 83
41 41 44 47 47 51 48 50 48 39 50 50 51 51 52 52 57 59 56 57 58 59 62 61 62 67 71 71 81 84 81 82
40 46 38 50 53 59 47 52 56 51 51 56 53 62 61 62 61 62 63 60 65 64 60 68 67 76 77 78 79 79 80 84
45 46 50 54 54 51 49 54 51 51 51 53 57 52 57 60 60 62 64 58 59 57 56 62 68 70 70 75 80 80 79 75
28 50 56 51 40 43 52 53 50 52 50 52 54 54 54 60 61 61 60 65 68 65 69 68 70 75 77 80 83 73 69 66
39 36 50 58 55 46 48 52 49 49 54 60 61 58 63 61 62 58 62 66 70 70 72 74 72 73 71 70 67 64 63 65
44 41 52 50 53 48 45 54 53 53 52 51 53 57 58 61 67 71 73 71 71 74 73 73 77 71 70 64 63 63 66 68
35 44 50 46 42 45 53 54 58 53 62 65 62 65 64 66 64 65 70 68 71 72 76 75 73 69 65 62 63 65 68 72
37 42 38 53 47 46 46 50 59 62 60 56 54 66 69 73 64 66 67 71 75 78 76 76 71 63 61 63 66 67 71 75
32 34 42 38 48 53 55 57 54 61 57 64 57 59 63 64 65 68 69 76 80 76 69 61 59 60 64 64 66 71 74 75
39 42 43 46 51 60 57 51 57 61 63 62 61 61 64 65 68 70 73 75 65 60 56 57 59 63 64 68 69 70 74 77
38 44 45 47 48 47 50 60 64 64 64 61 64 65 60 62 64 66 66 62 57 56 57 61 64 65 68 73 75 78 77 75
32 32 41 45 45 48 50 53 53 54 57 59 60 59 57 58 58 58 58 54 57 59 62 65 67 70 72 76 80 83 85 86
33 34 35 33 34 36 38 43 44 47 47 51 53 54 53 55 56 57 55 57 62 65 66 66 70 75 76 77 79 82 86 90
37 39 37 37 38 39 39 41 42 44 47 50 51 48 48 49 52 55 57 61 64 68 69 72 74 78 80 80 82 85 89 92
34 35 35 36 36 38 39 41 43 42 41 41 41 45 45 50 55 58 62 65 69 72 76 79 83 84 84 83 87 91 94 96
34 34 34 36 37 35 37 36 36 36 33 33 39 46 49 55 60 59 67 71 75 78 82 83 85 85 87 89 91 94 97 98

GFSFLT2_250_spd_033.txt.gz
Wind_Speed
35 42 37 55 53 51 50 52 62 63 67 71 70 68 65 60 61 61 64 61 63 60 62 63 63 64 63 62 63 63 62 62
29 30 31 34 47 46 44 48 51 50 48 49 53 52 53 52 55 56 53 58 58 57 58 62 62 60 58 59 61 61 59 60
30 31 31 32 37 28 29 33 42 41 38 43 45 46 45 35 40 46 53 56 56 57 61 59 57 60 61 63 63 60 57 60
37 37 36 34 37 28 22 30 38 47 43 47 49 49 41 47 49 50 56 56 58 59 61 61 63 64 67 66 61 56 62 61
40 41 43 32 37 38 41 44 44 43 49 50 50 49 45 50 48 50 51 47 54 62 60 68 65 65 58 57 51 63 67 72
45 46 46 39 46 48 49 48 48 50 50 50 50 46 54 54 55 58 59 57 57 68 60 59 51 49 57 68 71 73 77 81
44 41 49 50 46 44 46 52 52 52 51 48 53 55 58 59 60 60 61 64 60 57 57 57 65 66 67 73 75 78 78 76
42 41 46 50 54 50 44 34 47 51 50 51 53 59 56 58 55 57 52 56 58 64 65 66 67 74 79 83 77 78 81 79
40 35 47 55 52 55 51 41 42 48 53 51 56 59 60 54 57 60 57 66 69 71 74 76 74 81 81 74 79 82 81 68
38 39 39 46 60 60 42 37 38 49 55 51 54 54 56 58 61 62 61 62 66 68 70 76 80 78 82 83 78 74 66 61
41 43 44 43 44 50 50 47 37 35 44 48 54 56 56 56 61 66 69 72 76 75 80 83 80 76 76 70 65 63 61 65
32 36 48 44 40 47 54 58 53 50 49 54 58 58 64 67 65 65 66 66 71 73 74 75 73 70 65 64 64 62 62 64
27 36 35 49 46 48 55 44 51 50 52 59 57 60 62 65 71 74 70 71 76 75 71 74 70 65 64 62 59 61 65 70
37 35 39 38 44 42 53 51 49 51 50 51 52 54 54 58 64 68 74 71 74 71 73 71 65 63 62 63 66 64 58 66
29 39 40 41 40 41 42 47 51 53 57 59 61 66 68 68 73 70 72 71 70 69 69 69 65 65 65 66 67 69 73 70
31 32 35 40 44 46 43 47 53 57 60 64 69 69 68 69 72 68 66 64 62 66 65 64 64 64 65 67 72 74 80 84
43 35 35 36 36 38 45 47 52 53 51 53 55 58 58 60 62 60 58 57 60 62 64 65 65 69 68 69 72 79 85 90
36 39 40 41 42 43 45 46 48 51 51 52 53 53 53 52 54 52 52 58 57 60 66 68 70 70 75 78 84 88 92 91
39 41 42 43 44 45 45 45 46 47 45 44 45 44 44 47 45 52 54 61 63 66 67 71 77 80 83 88 91 94 92 93
36 38 38 39 41 41 41 44 45 42 39 39 38 41 38 42 42 49 57 63 63 66 72 78 83 85 88 92 95 91 92 95

GFSFLT2_250_spd_036.txt.gz
Wind_Speed
51 38 41 36 40 47 48 54 56 67 64 62 66 71 76 75 71 72 71 71 72 69 67 64 65 62 62 60 63 64 62 61
35 34 31 35 36 31 31 32 40 41 48 55 57 54 56 60 60 61 61 59 56 57 59 55 53 57 57 61 61 60 66 64
37 35 39 33 25 27 23 19 31 34 35 36 41 42 39 41 44 46 46 51 51 48 46 50 56 61 63 60 64 61 62 59
36 38 35 35 31 36 27 33 32 24 30 35 35 34 39 40 43 42 47 46 50 53 55 51 58 56 60 60 64 62 57 51
43 38 37 39 40 37 36 30 31 29 29 36 39 41 39 43 45 47 50 52 54 52 52 55 55 58 56 57 61 52 60 62
46 38 39 39 40 39 39 40 39 41 37 40 47 47 45 44 49 49 49 54 59 57 57 58 54 61 58 62 55 68 71 70
48 40 41 47 44 42 42 45 48 47 46 43 49 47 46 47 50 50 53 57 57 55 49 53 58 59 59 62 69 67 73 79
57 48 40 43 47 49 41 44 50 53 53 51 49 47 49 52 57 57 57 59 51 49 53 58 63 67 68 74 76 75 75 80
62 53 46 43 48 51 54 50 43 50 58 57 54 49 51 55 54 51 58 63 67 60 68 66 67 72 73 73 76 83 86 86
64 61 59 51 50 54 54 56 51 50 46 44 48 50 50 54 56 55 55 56 62 63 63 63 70 76 81 80 81 79 85 78
42 43 47 47 52 52 55 59 55 51 46 37 36 40 47 45 50 55 58 60 61 66 67 69 74 77 73 78 78 78 76 76
42 44 43 44 40 43 44 51 47 44 39 36 39 46 49 55 57 59 62 64 66 71 76 76 76 78 81 84 77 75 75 72
23 30 33 39 40 44 43 36 39 41 48 46 47 51 51 52 54 57 63 64 72 74 66 70 77 78 75 77 74 72 73 71
28 31 39 36 36 44 49 51 46 46 46 46 59 59 63 64 63 67 68 68 66 71 77 77 74 82 75 78 77 73 68 66
38 35 39 39 35 35 35 45 48 54 53 57 56 57 60 61 65 66 69 71 72 73 75 72 71 73 73 77 75 71 67 65
37 37 41 45 43 43 47 47 45 45 49 53 59 62 64 65 66 69 69 73 72 71 72 70 70 68 69 71 72 69 69 70
36 36 34 34 38 39 43 46 51 55 52 54 51 56 61 62 64 64 66 66 65 66 66 63 67 66 66 68 73 72 74 80
43 39 45 45 46 42 40 42 43 45 46 49 52 54 57 58 59 61 60 60 63 64 57 60 65 69 73 76 75 80 81 84
38 34 34 39 45 48 48 49 50 51 51 47 50 53 54 56 59 58 55 53 55 51 58 62 69 75 77 78 81 85 88 94
38 38 37 38 40 42 45 42 41 42 38 38 42 49 53 55 56 54 53 54 58 56 61 68 73 76 77 81 86 88 94 100

GFSFLT2_250_spd_042.txt.gz
Wind_Speed
46 37 36 34 23 44 35 48 47 46 47 36 34 39 39 40 41 44 43 47 57 58 57 59 58 67 65 65 62 68 71 62
35 39 28 40 32 41 44 50 54 43 43 41 39 41 39 41 41 42 45 45 46 44 46 47 46 57 55 51 56 54 55 53
42 32 35 38 51 57 47 46 46 40 38 41 39 41 38 36 35 39 34 33 37 37 42 43 43 50 50 52 50 51 50 51
48 33 31 47 61 53 48 37 33 41 36 33 30 39 38 41 31 35 43 38 38 38 38 37 40 45 45 50 46 45 45 46
52 47 54 57 57 45 47 40 43 44 37 32 34 37 41 42 40 40 40 42 42 38 41 37 44 53 51 46 42 44 46 47
60 59 61 56 56 37 44 42 45 39 37 34 38 42 42 40 43 45 48 46 46 42 39 45 47 51 54 48 48 50 51 55
63 64 59 55 53 46 41 42 43 40 40 38 40 43 44 43 39 36 40 41 48 41 41 43 47 50 51 50 53 53 59 63
62 71 68 60 53 46 42 42 44 45 43 44 45 45 45 40 41 43 45 45 46 48 49 52 52 51 51 51 56 58 59 60
65 67 64 63 58 58 48 43 44 40 39 41 42 41 44 43 42 48 51 52 50 50 53 53 51 54 55 57 56 57 61 66
68 67 64 60 53 48 43 43 44 43 44 43 44 47 45 47 47 49 51 49 50 53 55 56 49 52 54 56 60 64 65 70
70 66 65 67 54 50 46 47 48 43 47 49 52 53 53 53 53 53 53 58 59 55 55 50 53 55 57 59 62 66 69 73
64 66 62 56 52 50 51 53 55 56 58 59 58 56 55 58 61 65 58 59 56 58 57 57 55 57 60 65 69 71 73 75
64 59 60 59 62 57 58 59 63 65 67 64 65 66 61 64 65 62 57 51 55 54 55 57 59 65 68 72 69 70 75 79
67 67 68 62 60 61 64 67 71 70 65 67 52 49 63 55 48 44 45 50 51 55 60 62 66 68 72 74 75 76 77 75
62 63 66 68 65 63 64 68 67 60 66 55 56 55 52 48 49 56 58 60 63 64 65 66 69 71 73 74 72 72 74 76
49 60 65 63 67 69 73 61 64 69 60 58 63 61 49 50 51 55 58 62 64 67 67 68 67 67 69 68 71 73 74 74
44 50 62 61 53 57 57 60 64 54 46 45 47 52 51 51 55 58 59 61 61 63 65 65 64 65 65 65 65 69 71 71
36 45 60 65 60 53 48 43 42 44 45 48 50 53 56 56 58 62 67 68 69 69 68 63 61 61 63 65 71 73 73 73
36 37 37 35 38 42 43 41 46 45 46 46 49 53 55 59 60 63 63 60 60 61 61 61 60 63 67 71 75 76 78 79
35 36 35 36 37 38 41 43 46 46 47 49 49 48 50 47 45 46 52 54 57 60 57 59 62 69 72 74 77 80 80 81

GFSFLT2_250_spd_045.txt.gz
Wind_Speed
61 61 56 42 51 52 41 40 38 36 38 34 33 37 41 41 40 37 40 38 43 48 53 54 52 53 63 63 62 62 61 61
66 64 54 42 47 43 43 41 38 36 39 38 41 42 40 39 43 44 48 50 43 44 49 51 46 43 47 45 48 47 45 43
64 60 50 45 49 43 32 35 39 41 36 44 44 40 35 40 38 46 50 45 39 39 43 47 45 43 45 41 36 39 43 44
57 57 43 42 44 47 48 42 45 43 40 49 40 36 37 32 45 41 38 39 44 42 44 44 42 40 39 37 38 44 47 46
56 48 47 48 47 42 38 45 46 40 40 43 38 41 35 32 34 40 38 40 41 41 43 43 42 44 44 47 43 47 49 45
53 49 50 53 54 45 40 45 50 43 44 35 33 24 23 28 33 35 36 39 36 36 40 44 44 48 51 48 46 49 53 55
61 54 54 46 45 51 49 44 46 46 44 37 31 29 34 35 33 32 34 38 35 37 37 43 47 47 49 48 52 53 57 59
62 58 52 45 50 52 51 47 39 39 40 39 33 34 36 32 38 36 36 36 40 43 39 46 49 50 48 52 54 54 52 53
67 56 55 54 52 47 45 43 40 35 36 37 37 38 33 35 37 37 39 41 44 46 44 45 51 50 52 55 58 61 59 59
72 60 56 60 58 53 47 46 39 38 35 35 38 39 43 45 42 44 48 52 50 49 45 50 55 57 61 61 56 59 60 59
66 64 61 65 66 63 56 56 54 52 46 42 47 44 49 49 51 54 54 56 54 57 56 60 53 56 58 59 59 59 55 56
69 69 71 64 66 64 64 64 65 61 55 55 52 56 52 55 58 59 59 58 57 56 56 55 54 51 51 54 55 54 57 63
72 69 71 73 66 66 67 66 63 69 67 54 59 58 60 62 65 64 64 64 49 45 45 46 45 46 47 53 55 63 67 71
63 62 67 74 69 70 69 69 69 66 72 66 61 63 67 67 68 70 64 51 50 49 42 47 52 55 59 64 65 68 70 69
50 58 65 68 65 69 71 73 65 62 64 59 59 62 63 60 60 48 46 48 50 53 57 62 63 63 64 65 66 67 69 70
41 57 55 57 63 66 64 61 63 64 59 59 64 62 58 61 48 49 48 49 52 53 55 58 62 60 62 65 68 70 72 68
34 40 47 52 51 52 58 66 61 65 68 60 52 57 53 46 47 52 54 57 57 59 59 59 60 61 61 63 64 62 64 61
33 37 38 39 47 49 52 54 54 55 59 59 56 48 50 49 53 53 54 55 57 61 57 55 57 59 58 57 50 55 57 63
31 29 34 37 41 43 41 48 52 53 56 47 51 50 51 56 55 52 50 48 52 50 47 50 53 46 47 51 57 63 68 71
34 33 33 39 43 40 40 40 40 44 45 45 48 46 51 37 36 39 41 40 40 46 50 49 59 64 62 61 63 69 74 80

GFSFLT2_250_spd_048.txt.gz
Wind_Speed
41 45 48 50 52 49 40 50 54 37 35 30 34 35 27 28 27 29 31 32 35 37 35 31 32 32 34 36 37 41 42 40
40 43 46 49 52 47 52 46 47 38 27 28 33 31 26 32 29 33 35 36 35 27 25 26 27 32 36 36 33 30 32 34
40 44 50 53 50 48 48 47 47 43 39 32 36 29 28 31 29 29 29 40 34 29 27 25 31 31 32 35 36 35 34 35
47 53 63 61 61 50 47 49 47 38 36 33 35 30 29 33 19 32 36 34 37 34 30 28 31 34 33 36 38 39 38 39
61 61 59 54 45 50 54 45 49 35 39 38 39 32 31 30 27 27 22 27 29 27 29 33 32 35 36 37 36 39 43 43
55 59 59 50 52 52 53 49 41 35 32 42 41 36 34 24 22 26 26 24 26 26 29 34 40 39 41 36 39 43 46 46
52 64 61 52 43 45 54 57 46 39 41 43 42 39 41 33 45 27 24 23 26 27 30 36 37 41 43 42 44 44 45 48
50 58 59 50 44 46 48 45 46 41 46 44 44 37 39 38 28 25 26 22 25 32 37 40 41 44 45 47 47 47 51 52
60 55 56 58 51 53 45 44 40 44 46 46 46 41 38 33 30 30 29 27 26 34 41 47 50 48 46 47 49 53 50 49
56 62 62 58 53 53 43 49 45 40 42 43 43 40 38 35 32 30 34 33 37 42 52 53 52 50 45 47 50 50 50 48
54 59 52 56 58 57 52 54 52 48 43 42 38 36 34 36 35 36 41 46 46 51 56 60 65 46 43 42 44 46 48 45
57 53 52 55 57 54 55 56 52 51 49 52 46 44 42 44 47 50 52 54 53 57 65 65 53 42 42 46 45 47 45 44
61 58 54 54 59 56 57 59 60 57 54 52 55 59 60 63 62 63 62 60 62 65 62 54 42 43 45 39 43 44 48 49
66 70 64 61 62 60 64 66 68 68 68 65 63 62 61 62 60 66 67 62 69 63 51 48 46 47 43 47 53 54 58 61
55 57 57 67 63 60 66 66 67 67 68 66 66 64 62 63 63 61 65 63 66 60 48 45 45 49 52 51 54 53 57 57
40 43 48 58 51 62 63 70 73 71 69 64 66 68 71 73 66 62 71 63 53 53 51 50 52 54 56 57 58 59 59 53
33 36 44 47 49 55 55 60 64 67 67 64 65 66 66 70 71 70 64 68 50 52 53 54 56 58 58 59 61 57 48 44
32 33 39 42 45 47 51 55 56 60 62 63 64 66 63 55 63 56 57 63 54 55 58 58 60 54 54 51 45 37 42 47
27 34 38 43 45 43 46 48 49 53 59 52 58 55 51 45 44 48 49 46 52 52 55 56 50 49 52 50 41 43 49 57
23 29 35 35 38 43 44 47 45 45 44 47 49 51 46 48 46 45 46 45 45 48 50 52 49 46 49 54 60 60 63 63

GFSFLT2_250_spd_051.txt.gz
Wind_Speed
17 16 32 37 40 41 46 49 42 41 39 44 37 32 38 46 44 33 30 29 25 20 20 22 21 12 11 18 19 25 26 26
26 2 24 32 36 41 47 49 45 42 35 34 28 33 41 45 39 35 32 29 29 24 26 25 25 19 18 21 21 26 32 30
39 44 42 41 39 41 46 46 47 42 43 40 40 35 32 41 40 35 30 27 30 29 27 24 29 28 20 20 28 27 31 32
35 33 35 37 37 41 45 54 47 53 53 45 41 32 30 33 33 32 29 22 24 25 23 22 27 26 22 25 30 36 35 34
27 36 42 39 42 47 60 55 54 55 58 56 40 36 35 37 37 32 30 31 25 31 33 31 25 29 27 31 32 35 36 35
39 31 47 44 44 47 52 54 54 52 50 50 44 40 37 34 28 31 35 25 26 21 22 22 31 30 34 33 35 39 36 34
46 43 47 44 44 48 46 51 53 52 46 48 46 41 37 36 36 37 30 35 38 36 37 29 29 27 33 36 41 46 38 35
46 42 48 46 50 49 51 54 55 56 48 44 39 37 38 37 40 39 43 45 45 33 27 30 26 32 37 41 45 45 39 38
39 42 46 50 49 44 54 52 51 54 48 46 47 45 46 43 42 43 41 30 30 31 27 30 36 36 41 43 47 42 36 38
37 45 45 44 51 41 42 48 59 58 58 50 52 49 48 43 43 36 36 32 32 31 32 36 42 45 48 47 45 51 53 47
38 44 46 48 55 53 49 47 49 54 56 54 50 47 50 47 43 40 36 33 33 39 42 46 51 56 55 55 54 56 49 54
44 41 50 48 49 59 49 52 54 51 46 49 47 52 52 48 41 37 36 38 41 52 60 58 58 63 61 54 58 63 52 44
48 48 44 51 55 46 52 53 52 56 54 53 54 51 51 43 43 46 50 53 55 57 63 65 60 56 59 57 59 49 49 44
51 42 49 47 57 50 51 51 51 54 54 53 55 55 56 55 55 57 55 60 63 66 69 65 60 60 65 61 62 59 47 49
36 50 46 54 48 55 59 57 58 57 59 59 60 59 58 60 61 62 65 67 71 68 66 69 67 56 64 54 49 49 51 53
25 47 43 45 49 49 54 54 57 61 63 62 63 65 64 67 70 70 72 70 66 67 63 62 59 54 53 52 50 54 56 58
19 29 44 44 50 44 45 51 58 58 62 65 63 68 71 71 70 68 67 62 64 57 57 53 51 51 49 51 57 60 55 51
13 20 29 39 43 48 44 45 49 53 55 58 60 63 64 65 67 68 68 63 58 55 52 52 51 52 46 46 48 48 49 47
10 14 22 31 36 41 40 41 42 46 48 53 57 60 58 59 57 55 54 56 53 53 51 49 51 48 49 45 42 46 41 43
15 15 14 21 29 35 39 42 41 43 45 47 49 49 52 51 51 52 51 48 51 52 51 50 52 53 53 51 57 55 58 59

GFSFLT2_250_spd_054.txt.gz
Wind_Speed
15 10 17 26 27 34 38 44 45 47 46 51 50 47 49 41 46 43 40 43 41 33 33 24 24 19 15 17 13 14 15 16
12 11 8 12 31 25 28 30 40 48 45 42 42 48 43 38 42 37 40 44 37 34 30 24 23 25 26 29 26 27 21 20
27 11 17 27 26 41 37 35 37 42 41 41 38 38 36 40 41 39 41 44 43 31 32 32 28 27 27 26 26 27 24 22
25 21 35 32 26 28 35 35 36 40 40 40 34 32 33 38 35 33 42 45 38 31 24 24 25 27 28 26 28 28 32 30
34 32 20 25 25 15 30 39 38 39 39 33 29 32 33 30 35 42 40 42 35 33 32 31 33 28 26 27 31 30 23 32
37 38 33 33 42 40 37 37 46 45 40 39 43 44 43 36 36 34 34 36 37 37 29 22 28 31 33 36 29 33 33 36
27 37 39 43 32 40 44 44 52 46 45 47 48 45 43 36 37 36 35 38 38 33 34 31 37 38 33 30 36 37 33 38
21 35 38 33 34 33 41 51 53 48 50 56 56 49 46 39 37 39 34 35 34 34 36 40 39 29 33 38 39 39 42 46
12 31 33 37 36 36 44 62 59 47 51 48 49 52 51 50 49 48 42 36 38 38 41 34 30 35 41 36 40 43 50 55
15 31 36 34 34 39 51 60 60 45 45 50 48 48 45 41 39 44 44 41 38 39 36 39 37 37 41 41 48 58 58 53
20 36 42 35 35 39 41 46 53 57 54 50 54 46 47 44 45 45 46 47 44 47 49 44 43 45 43 50 55 59 62 53
29 35 41 45 38 36 45 46 49 52 58 54 53 56 52 50 53 51 52 52 50 50 44 47 43 46 53 59 57 65 62 60
33 39 43 47 44 40 47 45 49 49 51 57 59 56 58 54 50 56 57 57 58 57 50 46 51 59 64 63 65 67 68 63
38 43 48 50 52 41 46 48 51 54 54 52 55 59 61 61 65 60 61 63 58 52 55 56 63 64 67 66 68 69 59 52
40 44 43 46 53 54 43 43 52 57 56 55 57 58 60 62 65 65 64 61 59 62 64 65 66 69 73 72 72 63 53 49
31 42 45 43 46 47 52 56 53 50 50 51 52 55 56 56 58 59 60 60 63 65 66 70 74 73 71 73 64 58 52 49
10 32 42 46 49 50 52 51 52 54 54 54 57 57 59 61 60 62 65 67 68 72 72 73 74 77 71 62 59 57 50 47
5 10 30 43 47 50 53 55 56 56 56 56 59 60 62 64 66 67 67 70 71 71 72 69 71 62 62 58 54 53 53 46
10 5 6 21 39 45 51 54 56 54 54 56 58 60 61 62 63 66 67 68 68 69 65 62 61 58 58 53 55 55 51 51
11 9 7 8 13 28 41 46 52 53 55 56 55 55 56 57 57 61 62 63 59 55 57 58 59 60 54 54 54 52 52 50

GFSFLT2_250_spd_057.txt.gz
Wind_Speed
25 11 19 23 25 35 36 46 39 39 37 46 56 49 51 54 49 44 37 41 38 38 40 41 39 32 23 21 18 16 17 16
30 21 20 23 41 41 30 50 50 38 33 41 53 45 54 47 47 45 41 41 49 45 42 41 37 30 29 20 23 25 31 29
28 26 23 25 38 56 44 29 53 39 35 36 49 48 48 45 42 40 39 41 41 40 40 37 35 30 25 25 30 28 29 31
34 31 23 26 43 49 59 44 47 49 40 44 50 47 45 42 37 36 32 37 37 39 38 43 40 31 29 25 31 30 32 32
36 30 22 31 27 45 57 46 44 39 36 41 46 39 35 34 37 32 40 43 38 44 47 41 31 24 28 29 27 28 31 36
29 31 25 30 37 36 51 51 43 27 34 39 42 40 35 28 27 33 33 35 42 40 34 38 35 30 32 37 29 34 35 33
33 34 35 22 26 35 32 34 44 41 41 42 41 38 33 28 32 36 35 41 41 40 36 33 31 36 40 38 41 35 33 35
29 38 35 36 32 35 40 38 42 46 41 42 35 29 32 39 36 36 42 42 34 30 29 31 35 37 37 37 32 36 37 42
16 26 30 39 41 37 36 41 41 41 46 42 35 37 37 39 40 36 43 40 34 33 32 36 35 35 36 32 36 43 45 46
17 17 23 25 39 40 34 41 39 48 46 46 38 35 40 40 44 45 38 37 40 39 39 41 39 37 39 42 46 53 53 46
22 18 19 24 30 31 25 28 41 49 44 42 43 43 48 42 42 45 47 48 43 46 43 46 46 46 46 51 56 58 51 51
29 22 26 25 30 26 31 29 45 50 49 45 43 49 47 42 43 48 49 49 50 48 47 52 55 55 57 58 56 50 53 59
32 28 32 31 33 29 29 32 33 54 46 42 46 47 45 47 40 43 46 48 50 53 54 57 59 58 59 59 57 55 60 63
36 34 36 38 33 38 35 32 34 50 45 47 46 48 54 49 53 49 52 51 56 60 60 57 59 62 64 64 62 63 66 67
38 39 43 45 46 38 39 38 40 42 46 49 55 57 57 55 57 60 59 62 65 64 64 66 65 66 63 63 66 68 68 74
29 45 47 48 44 51 47 41 46 48 50 51 52 51 53 62 63 60 66 63 62 64 66 67 66 65 64 66 69 72 77 77
8 37 51 51 49 50 52 52 49 50 50 55 59 57 59 57 59 57 61 63 63 64 64 63 66 66 69 72 77 77 75 68
12 9 37 53 54 53 56 60 59 56 52 52 53 54 55 57 59 59 61 63 61 62 64 65 67 74 75 74 74 74 69 64
8 10 12 26 54 56 57 58 61 61 60 59 57 56 57 58 59 59 61 63 64 66 70 73 75 74 73 74 73 70 66 64
8 8 10 9 24 56 53 59 62 62 63 64 64 65 66 66 68 69 70 72 74 74 72 71 71 72 70 65 63 62 63 61

GFSFLT2_250_spd_063.txt.gz
Wind_Speed
38 31 27 19 18 30 34 33 25 17 21 31 34 41 43 44 43 32 31 41 37 33 32 34 34 33 23 33 29 34 31 23
34 23 23 21 29 38 47 41 34 38 42 29 40 43 54 50 48 38 31 35 35 30 27 29 22 19 18 26 37 32 31 19
29 22 21 27 32 51 56 43 39 48 40 45 39 47 46 44 47 39 30 32 32 27 22 22 29 23 31 30 33 36 30 20
26 25 26 34 36 53 61 47 48 61 58 55 49 42 46 44 45 39 36 32 28 26 20 18 26 23 27 42 44 31 28 28
23 27 30 38 36 49 59 55 59 59 64 57 53 53 46 50 42 41 22 27 33 31 29 28 36 32 27 36 33 28 26 27
22 28 34 36 37 45 60 55 57 61 57 52 60 60 50 50 35 41 42 37 34 37 34 36 37 28 33 42 40 33 30 34
22 29 34 39 40 49 57 57 56 59 49 54 61 56 55 49 42 36 42 37 32 36 37 37 35 24 30 40 35 33 32 34
21 32 34 37 43 50 54 55 49 56 53 61 48 54 38 34 31 23 28 29 37 36 44 41 36 30 40 40 38 29 34 31
21 25 34 43 41 51 53 52 53 57 58 51 55 51 42 30 32 27 28 32 37 39 42 36 28 29 38 41 38 35 30 26
22 27 28 47 50 54 59 51 55 59 54 51 51 54 46 37 37 38 32 32 38 39 37 34 25 34 34 32 34 28 27 30
21 27 32 30 54 54 60 58 58 63 62 57 53 52 54 37 36 36 37 38 42 38 33 30 34 39 34 31 30 31 30 32
18 23 30 29 31 54 60 60 62 60 63 62 60 57 57 49 40 37 41 47 47 42 33 28 43 40 42 34 30 32 35 37
17 20 30 30 29 39 63 65 56 59 60 65 61 65 51 44 42 44 51 47 47 39 38 39 39 44 40 39 37 36 38 43
19 16 24 32 28 34 41 50 59 59 54 50 57 58 52 49 43 50 49 46 45 40 41 43 39 42 47 48 45 43 43 42
14 7 16 27 30 25 32 35 39 39 47 55 55 49 48 46 48 48 48 44 40 41 41 40 43 45 49 53 51 49 45 50
13 11 11 24 28 28 23 26 27 29 32 33 35 36 38 48 49 45 45 45 40 43 48 47 50 52 50 51 51 50 55 58
15 13 11 11 34 30 26 25 29 34 32 29 28 33 39 44 45 44 41 39 45 48 49 48 51 51 53 55 57 60 62 64
17 17 12 10 12 38 33 32 30 38 36 31 31 38 47 50 48 47 45 47 47 49 51 53 55 55 56 59 64 66 66 63
15 16 16 12 10 12 40 41 36 40 36 39 39 40 46 52 47 47 48 52 54 53 55 59 60 60 62 61 64 68 70 70
17 16 16 17 13 10 11 35 43 41 43 44 41 38 40 46 50 51 52 52 57 58 60 60 62 63 63 64 67 71 74 78

GFSFLT2_250_spd_066.txt.gz
Wind_Speed
36 33 28 32 26 28 21 6 20 22 23 15 17 25 31 28 31 30 28 26 20 19 30 31 33 38 42 40 30 27 26 21
34 29 29 28 29 39 44 41 52 42 32 27 25 32 30 33 34 37 36 32 27 23 26 26 28 29 31 27 27 25 22 24
33 30 29 28 30 44 56 53 53 56 37 38 44 44 46 40 43 44 34 27 29 24 26 28 30 28 30 24 19 23 23 34
31 31 30 27 28 47 57 60 60 50 45 45 52 51 47 47 43 42 31 33 23 28 27 29 25 29 33 29 21 30 32 32
32 27 30 26 29 44 58 64 61 52 50 55 60 55 43 43 35 37 34 39 26 16 24 27 24 27 27 22 21 25 34 44
30 27 28 25 27 43 57 64 64 58 57 52 54 39 44 37 39 33 28 23 30 37 28 29 29 34 28 32 30 29 32 31
29 24 26 24 27 42 57 63 61 58 60 54 59 48 51 55 46 41 34 33 27 32 39 41 37 39 37 34 35 30 33 35
28 25 24 25 30 38 46 67 58 51 55 56 59 47 49 52 53 52 44 27 28 30 35 39 43 38 37 35 30 34 33 37
28 27 24 22 31 35 37 62 66 52 47 49 59 56 50 53 51 46 32 32 24 23 31 38 34 39 43 34 24 32 41 38
27 28 24 25 32 36 34 35 57 58 51 53 50 48 47 51 54 47 40 29 30 28 33 37 42 41 42 36 27 39 34 36
24 28 27 24 28 38 38 39 42 53 57 56 56 52 42 38 41 46 41 45 39 33 32 42 40 45 45 40 24 35 43 38
22 25 25 22 26 40 43 45 49 46 49 55 58 59 50 51 50 44 41 36 39 37 34 39 42 44 42 45 31 34 34 36
20 25 21 22 26 38 45 45 45 58 49 57 58 58 55 49 50 45 42 39 34 39 39 41 42 46 47 46 36 41 42 39
15 20 22 11 23 31 37 47 48 50 56 54 60 58 60 61 53 55 48 44 40 40 43 49 47 49 43 41 38 45 48 45
14 16 17 15 13 27 26 30 53 57 60 56 54 53 48 51 55 55 52 50 40 43 52 52 46 48 47 48 51 47 57 52
16 15 16 15 19 16 27 27 22 39 52 56 57 56 55 51 51 53 59 53 48 49 52 49 50 49 47 46 53 54 51 53
12 16 16 16 15 14 17 25 24 26 39 43 45 39 43 46 51 52 52 50 47 50 50 50 47 50 47 44 47 51 53 52
10 13 17 15 16 17 16 19 22 22 27 37 33 32 33 36 44 46 44 43 46 45 48 46 48 48 51 51 55 55 57 56
12 11 13 15 15 17 18 17 25 25 23 24 28 32 31 33 36 38 34 44 48 45 45 47 47 51 57 58 59 59 60 62
11 12 12 13 13 15 15 14 16 31 35 30 29 35 38 39 36 39 40 43 53 52 50 53 55 58 61 61 62 63 66 67

GFSFLT2_250_spd_069.txt.gz
Wind_Speed
41 40 34 31 31 25 30 23 12 24 44 29 20 23 22 21 22 24 17 19 21 19 12 21 32 36 34 36 39 40 35 26
38 38 34 28 31 31 40 36 31 30 48 44 35 36 26 24 27 20 22 26 24 17 21 25 22 26 29 30 35 36 35 31
37 36 32 29 33 33 44 47 44 43 41 40 47 35 29 28 30 25 31 29 28 20 24 28 24 25 27 29 26 24 24 29
35 36 36 34 35 32 43 55 53 50 56 51 52 50 32 35 37 38 35 34 27 24 24 28 27 22 25 28 26 28 28 29
35 38 37 33 33 32 37 63 62 58 59 60 55 47 36 44 43 45 44 37 33 28 27 23 16 21 21 26 28 30 29 27
36 38 36 33 33 29 32 63 68 58 59 53 54 48 47 43 45 45 42 28 24 18 30 30 29 28 29 26 29 37 30 24
34 36 37 32 32 30 34 53 68 57 54 54 55 53 51 48 39 43 31 25 10 19 28 33 31 32 34 31 37 29 25 24
36 38 37 31 27 28 29 35 56 60 56 61 56 56 60 55 44 46 34 32 30 21 26 30 32 31 30 32 40 24 31 31
35 36 34 30 26 27 29 25 45 54 61 65 57 59 51 42 54 51 46 46 41 29 32 27 25 29 30 33 31 35 33 36
34 33 32 26 23 24 29 23 31 37 67 65 60 53 61 49 47 44 44 40 37 25 20 22 28 34 41 35 33 34 33 35
32 30 31 24 23 22 30 26 28 26 51 55 56 55 54 58 53 44 46 42 40 36 35 32 37 32 40 36 36 37 36 39
28 26 27 23 20 19 29 31 28 31 34 58 49 49 48 51 52 55 46 39 38 26 31 33 37 38 42 43 44 43 39 37
17 19 21 24 15 14 26 29 36 36 32 44 48 48 52 53 57 49 44 43 46 49 47 39 39 41 45 49 47 47 46 42
13 16 15 19 16 14 22 27 38 41 40 36 44 44 50 51 48 51 53 52 47 43 41 37 32 40 45 45 43 41 48 48
12 14 11 14 16 10 17 24 32 41 43 41 44 49 50 52 54 55 54 54 54 54 51 42 45 39 45 42 42 48 52 53
12 11 13 11 12 11 10 21 22 32 40 44 48 50 52 52 51 47 51 54 53 50 52 52 52 43 47 47 49 54 52 56
11 7 8 11 9 11 4 17 25 25 23 26 39 46 58 58 54 54 50 51 49 45 50 44 43 45 50 51 54 53 56 52
13 10 6 7 10 9 9 3 19 24 26 24 25 31 34 35 42 46 40 43 44 45 46 40 38 40 46 50 49 48 50 55
15 12 11 6 6 8 9 9 5 14 25 25 22 25 29 32 30 31 33 34 36 36 35 33 36 36 41 50 50 51 50 52
20 16 12 9 8 6 8 9 9 5 3 23 29 26 28 34 35 35 33 33 31 34 34 37 38 43 43 46 49 51 53 55

GFSFLT2_250_spd_075.txt.gz
Wind_Speed
67 63 56 54 49 39 32 25 22 22 19 22 26 23 18 19 21 20 17 23 28 36 40 42 43 41 40 39 41 42 42 41
74 62 56 49 45 35 33 30 28 33 37 37 37 34 33 30 24 25 15 14 20 17 20 22 21 20 21 24 23 25 28 30
60 53 50 41 40 37 38 34 37 42 47 48 42 38 38 37 34 30 32 27 24 12 11 14 16 15 16 15 13 14 17 20
56 47 36 35 37 38 38 37 37 38 57 56 48 47 44 35 33 32 31 28 27 21 23 16 15 13 14 18 13 13 9 13
48 37 31 33 35 37 35 34 41 44 45 55 51 55 54 46 36 32 33 30 31 29 26 24 19 17 10 11 10 12 14 17
42 30 31 32 35 34 33 31 35 36 44 48 56 51 54 47 48 38 36 42 41 34 33 28 28 17 17 22 16 19 18 18
37 30 31 34 34 32 32 28 28 33 39 44 52 55 57 54 49 47 46 44 42 34 31 31 27 22 28 23 22 29 26 14
36 31 32 33 33 31 31 28 26 29 36 36 53 53 62 64 54 51 51 50 47 38 37 27 27 26 22 24 21 14 12 11
36 31 31 32 31 30 31 26 27 30 33 33 46 54 61 65 61 55 51 52 51 45 43 30 30 27 27 22 21 14 10 9
36 29 30 28 28 29 31 28 30 29 31 32 42 45 62 64 62 55 52 48 41 32 32 32 34 34 32 26 20 27 20 17
32 27 25 24 25 29 31 29 28 30 31 31 38 40 52 64 64 61 46 51 49 45 36 36 36 33 30 22 19 21 26 22
29 24 22 22 24 27 27 23 27 28 28 26 29 37 43 48 66 59 48 50 47 46 44 41 37 34 28 27 29 25 22 26
24 21 18 17 20 24 21 21 20 23 26 24 31 35 43 38 44 59 56 51 52 52 47 40 38 35 38 36 36 32 37 33
23 18 15 14 17 17 16 20 17 25 25 27 26 23 33 31 37 46 47 51 53 49 49 44 41 38 41 38 34 40 34 32
23 19 18 13 12 14 14 17 17 27 30 26 23 26 29 33 35 41 44 47 47 49 49 46 47 49 45 47 49 46 45 44
24 20 17 15 11 12 9 10 14 30 34 33 35 27 30 33 37 37 38 40 42 43 44 48 49 50 46 43 47 46 45 50
24 20 17 13 9 7 5 6 11 31 34 35 31 26 29 36 37 36 39 42 41 41 44 50 49 49 49 47 46 48 50 48
28 22 17 15 10 5 2 5 10 21 28 34 32 30 27 27 26 35 41 42 43 43 46 47 48 44 47 44 44 47 47 47
30 26 20 19 16 10 5 4 4 20 24 32 33 31 33 36 36 38 39 41 43 46 48 49 49 49 50 49 50 50 51 51
32 30 25 22 21 16 10 5 8 8 23 26 28 30 34 32 33 34 44 55 55 53 53 56 55 52 52 49 46 49 48 47

GFSFLT2_250_spd_078.txt.gz
Wind_Speed
61 61 64 61 60 52 48 44 35 30 24 23 21 30 30 29 26 24 23 25 27 36 42 47 49 47 46 47 47 45 42 41
72 71 66 63 59 55 52 45 37 36 35 36 39 36 33 23 32 37 23 18 29 26 29 32 33 33 34 35 36 33 31 31
66 62 58 57 54 51 47 43 36 41 40 47 50 45 38 41 49 43 38 19 14 25 17 18 22 25 24 22 20 17 15 20
61 62 56 50 48 45 40 38 38 41 44 54 56 54 49 52 52 45 42 34 25 25 18 16 17 19 18 19 18 16 16 14
57 57 48 43 41 38 38 39 38 43 46 57 63 60 54 51 46 48 50 41 37 28 21 24 20 22 20 18 17 18 17 14
52 49 42 36 33 35 39 39 37 40 49 51 67 65 60 51 51 51 47 39 34 35 28 31 29 25 20 19 21 19 21 20
48 41 35 29 32 35 37 36 34 39 46 50 52 68 67 59 57 57 53 53 42 32 35 34 33 30 25 24 23 22 22 23
43 37 28 28 33 35 34 33 34 39 37 50 53 57 65 60 57 61 59 59 51 42 40 39 38 34 30 30 26 20 23 25
36 32 27 30 33 34 32 35 35 35 34 37 50 57 53 53 54 57 57 58 52 44 42 42 39 35 33 31 32 30 21 12
32 32 29 30 33 32 32 34 33 34 34 34 38 45 50 49 56 61 60 57 57 56 50 43 45 38 38 37 37 31 28 19
32 34 33 32 34 31 30 31 32 32 33 33 34 38 44 44 60 64 64 63 54 52 51 49 46 49 41 43 40 36 27 24
35 36 32 33 32 27 27 27 28 30 33 32 34 34 35 37 57 56 65 65 54 51 48 45 43 42 38 40 37 32 24 24
35 37 32 35 27 23 23 24 26 27 30 28 32 33 33 35 38 52 58 62 63 55 47 43 42 39 39 42 39 35 34 31
39 35 35 31 22 21 20 21 23 25 25 26 31 32 37 42 40 50 57 55 54 50 48 49 48 47 46 47 44 35 31 33
38 36 33 27 21 15 15 18 22 24 22 27 29 29 31 45 46 46 50 56 52 48 48 51 49 45 45 47 46 41 40 41
38 35 33 25 19 14 15 16 20 20 26 29 30 31 29 36 42 38 40 45 47 50 51 51 51 49 47 49 49 49 45 45
40 36 29 24 20 14 15 14 16 19 31 30 31 29 29 33 39 41 39 44 47 49 44 42 44 51 53 52 51 52 49 47
40 35 28 26 19 15 13 12 13 20 33 32 33 31 29 37 38 38 38 42 44 48 48 50 52 51 54 48 50 52 51 51
41 34 30 28 21 17 12 13 11 19 33 36 40 34 32 32 36 45 44 45 50 50 51 54 56 54 52 52 55 54 54 51
40 35 30 32 25 20 15 12 12 17 29 40 42 39 39 32 37 44 47 51 53 54 52 51 54 53 53 55 56 56 55 55

GFSFLT2_250_spd_081.txt.gz
Wind_Speed
76 77 74 65 60 60 63 62 56 49 34 28 28 26 28 24 29 29 23 30 36 35 39 33 34 40 50 53 54 53 51 48
76 72 64 62 64 65 61 64 56 55 39 34 39 37 37 39 37 37 40 43 39 27 31 27 27 36 41 45 47 46 44 37
69 65 64 61 67 65 57 56 51 49 44 42 46 48 44 43 43 41 42 44 44 43 27 27 24 27 32 36 37 29 26 23
64 63 64 62 65 65 56 49 48 48 46 46 53 53 47 44 47 50 50 50 46 46 38 24 20 22 23 24 23 17 16 17
66 65 62 62 66 59 53 44 41 41 43 46 56 55 53 51 54 49 53 50 48 44 37 38 25 21 18 17 19 17 18 17
67 63 61 64 63 55 44 36 35 38 43 47 58 58 64 57 58 59 53 50 47 45 45 41 26 25 23 20 20 21 19 22
62 60 58 63 58 46 36 29 35 42 46 50 56 59 65 67 58 64 59 51 51 45 44 39 32 28 26 25 25 28 22 23
66 59 59 62 46 39 30 31 38 43 47 49 52 53 59 70 73 53 61 59 50 48 46 39 34 38 34 30 28 29 23 22
65 63 61 48 38 33 30 34 39 44 46 46 48 46 53 64 76 68 56 57 56 53 52 54 47 40 41 31 32 33 26 22
63 60 57 38 36 29 34 36 41 42 42 44 47 43 46 48 68 74 64 55 57 57 57 58 46 42 42 44 36 40 34 33
68 62 47 36 34 31 33 37 39 41 39 40 42 43 47 55 60 71 70 57 59 55 57 57 54 50 43 40 36 35 38 40
66 56 39 38 30 32 32 36 38 39 37 39 42 42 45 48 54 64 62 58 56 57 58 54 55 47 46 46 40 41 40 44
61 43 36 36 31 32 33 37 37 36 36 36 39 39 40 42 48 50 59 58 59 59 55 57 58 55 55 51 50 49 47 48
46 38 38 30 31 32 33 36 35 34 34 35 36 37 39 40 43 45 56 59 67 62 60 57 52 50 49 48 47 43 44 46
38 38 36 30 32 31 32 35 31 32 30 31 32 32 35 41 38 39 50 59 57 61 65 60 55 46 46 46 43 42 43 49
36 39 30 31 32 32 34 29 31 25 28 28 26 28 34 35 42 36 40 51 52 52 55 59 56 52 50 48 47 48 50 52
41 34 32 33 34 34 33 27 24 23 21 23 23 27 30 36 44 45 42 40 50 56 51 46 48 52 53 51 50 50 51 48
38 35 35 35 34 36 30 26 22 20 19 22 26 31 32 34 37 46 46 43 46 49 49 49 49 50 48 53 52 53 58 53
38 37 37 36 34 34 27 25 20 15 18 23 28 32 33 33 30 29 40 42 39 49 50 51 48 50 51 53 57 58 62 57
42 41 39 38 33 29 28 24 19 16 14 24 32 33 31 28 31 35 32 37 35 40 47 49 55 53 58 56 59 60 55 55

GFSFLT2_250_spd_084.txt.gz
Wind_Speed
72 72 68 72 75 74 72 73 68 68 61 52 39 30 32 27 15 10 16 42 40 37 36 43 46 40 36 34 35 40 43 45
75 75 75 76 73 72 69 66 64 65 64 55 45 38 41 37 31 28 32 37 42 50 40 35 42 31 25 30 29 29 34 40
73 74 72 72 68 66 62 61 64 63 59 48 48 44 50 48 44 43 49 47 44 48 47 52 48 39 32 17 18 27 30 26
64 64 65 66 62 58 58 62 65 63 56 45 45 47 55 55 50 49 46 47 52 44 48 45 43 39 26 12 19 20 19 12
62 63 65 62 62 57 59 64 64 60 51 42 42 49 59 58 53 54 53 46 49 50 48 45 43 44 40 43 23 23 16 23
62 63 64 62 57 57 61 57 59 55 47 40 42 52 59 61 53 57 55 55 50 47 52 51 42 42 37 32 20 20 27 26
63 56 56 61 59 66 64 59 57 50 40 39 44 49 57 63 60 57 57 59 61 54 49 49 48 38 30 21 23 23 22 28
55 57 62 64 65 61 60 56 53 41 39 41 43 49 51 59 65 65 61 63 57 55 52 51 50 37 32 26 25 23 24 24
51 62 65 62 59 63 59 55 44 38 41 44 44 49 52 52 56 62 62 59 62 56 51 47 49 42 32 28 29 29 32 27
57 63 66 63 60 66 53 48 38 38 42 42 44 46 52 52 56 57 63 68 55 60 57 58 52 47 40 37 36 35 33 34
59 66 71 64 64 65 51 39 35 40 41 40 43 45 47 52 47 51 55 65 65 55 60 57 54 54 46 43 41 41 39 38
64 69 69 71 67 62 48 35 39 41 39 38 42 46 50 51 49 49 51 60 61 53 52 54 55 53 50 48 43 43 43 41
67 68 72 73 74 55 38 37 42 40 38 38 40 42 47 50 53 49 50 52 53 55 53 55 56 53 47 48 45 50 47 40
68 71 75 73 65 44 37 41 41 37 36 37 38 40 43 47 51 52 49 54 57 56 55 56 56 50 48 49 48 44 46 45
68 72 76 73 52 38 39 42 38 35 34 35 37 37 40 41 45 48 49 50 52 56 58 59 58 58 56 51 51 50 46 47
73 77 71 51 39 39 41 40 35 33 33 34 36 37 39 40 44 47 49 50 50 56 59 62 60 58 55 55 51 46 43 45
72 71 51 36 41 40 40 36 33 32 33 34 33 37 36 36 39 42 46 44 47 59 60 60 60 59 52 48 49 49 47 46
68 48 37 39 41 42 38 35 31 32 31 28 31 29 30 30 34 37 38 41 37 60 60 59 61 56 52 52 53 54 51 49
49 36 37 42 42 39 36 34 32 30 27 26 26 25 25 25 31 39 38 39 41 40 53 49 53 50 47 50 44 47 53 54
36 36 42 42 42 38 36 32 31 26 25 27 23 22 25 24 29 36 44 43 44 38 40 54 46 50 47 42 42 48 54 56

GFSFLT2_250_spd_087.txt.gz
Wind_Speed
57 54 59 62 64 66 65 66 66 65 68 66 68 59 43 30 32 32 23 20 12 32 34 41 43 44 40 35 21 20 23 25
60 60 59 56 60 60 63 67 67 65 63 63 65 61 43 35 41 34 33 24 29 20 39 37 42 33 32 32 21 17 15 18
54 51 53 53 56 57 58 60 60 60 59 59 59 61 47 40 47 44 40 35 30 41 44 42 47 47 33 25 36 22 13 22
54 51 49 47 51 51 51 54 56 58 59 58 62 63 45 41 53 55 46 38 40 36 41 40 49 52 44 28 21 24 36 13
52 47 49 49 50 55 55 55 57 57 57 58 63 59 45 43 56 60 53 48 46 50 48 50 47 44 44 35 27 38 40 26
53 47 47 49 51 54 56 56 50 57 61 63 67 57 45 41 56 66 57 58 54 54 53 49 45 46 43 42 37 35 29 15
54 53 50 49 53 55 51 54 58 61 57 59 63 53 43 41 53 68 58 63 57 60 60 57 54 51 46 36 34 29 19 22
48 53 48 52 51 50 51 56 60 53 51 57 55 48 40 41 53 63 59 68 59 63 61 61 52 46 44 34 32 27 22 19
40 47 54 48 49 50 54 56 58 47 54 55 52 42 38 43 52 59 61 67 66 65 61 60 58 55 51 39 35 33 30 22
38 43 57 49 46 53 59 56 56 57 60 55 45 39 38 45 53 52 56 64 65 61 63 63 57 58 53 43 37 34 30 25
42 46 57 57 53 57 60 57 59 61 62 54 40 37 43 49 52 47 50 61 64 62 60 58 61 57 54 43 40 39 36 35
45 49 56 58 59 59 59 62 64 63 62 42 38 41 46 47 47 48 46 47 55 66 61 53 56 59 59 48 47 45 47 40
43 54 63 59 58 62 63 63 65 64 59 39 39 43 48 43 45 45 47 47 48 54 62 55 48 55 56 54 49 47 43 41
46 53 53 55 59 61 62 65 66 69 47 40 42 45 46 45 44 45 48 50 45 49 52 49 50 51 54 54 54 49 43 43
46 54 55 55 56 59 61 67 70 54 39 42 44 45 44 41 43 43 48 51 50 45 39 44 50 51 52 54 54 50 45 45
46 49 53 57 57 61 69 69 54 38 42 43 44 41 39 37 39 40 45 49 52 50 46 46 53 53 53 52 52 53 51 48
46 52 56 59 65 65 67 54 39 39 44 43 38 35 34 34 37 40 44 44 46 49 49 50 58 59 56 52 50 50 49 47
47 56 58 63 66 71 52 38 36 43 43 38 35 30 32 35 37 36 39 42 45 49 49 50 55 62 58 54 55 51 52 50
51 56 61 66 68 52 39 33 41 43 38 34 29 29 33 35 34 35 36 39 41 45 45 48 57 63 61 59 51 46 46 46
51 54 60 61 47 36 32 39 42 38 32 30 27 28 32 30 30 30 31 33 34 39 39 45 54 60 56 56 56 55 49 50

GFSFLT2_250_spd_090.txt.gz
Wind_Speed
62 57 58 59 61 57 54 54 52 54 54 55 59 58 59 56 49 39 36 42 40 34 29 24 19 25 37 40 35 29 17 18
68 64 61 59 59 58 53 53 50 48 50 52 53 52 54 53 51 43 37 41 45 34 21 22 20 25 33 32 22 24 8 15
68 66 62 59 58 55 46 45 45 47 45 46 45 46 48 49 49 48 41 43 47 36 29 16 37 34 35 38 34 32 38 41
73 65 62 60 56 54 46 43 42 42 45 49 46 46 46 47 50 49 39 46 52 43 37 34 36 38 42 41 42 42 35 30
71 71 64 58 55 48 45 45 43 44 46 46 47 46 45 54 60 58 45 45 56 44 45 41 43 44 40 40 38 33 29 27
64 69 62 54 51 47 43 40 40 41 46 51 48 48 50 55 58 51 46 43 59 51 48 46 39 45 41 42 41 35 38 33
61 65 60 52 48 48 47 43 43 45 48 46 45 47 47 53 50 48 42 43 65 56 46 51 46 46 41 40 39 35 28 23
65 62 64 54 51 48 47 42 45 45 45 46 48 46 52 48 49 43 39 43 68 63 55 58 51 45 42 42 38 36 30 22
68 64 63 58 52 51 44 42 43 42 45 45 48 48 47 49 48 40 38 45 64 70 59 60 61 55 48 45 39 40 33 22
75 65 67 58 48 47 40 43 42 43 50 50 48 51 51 53 46 36 38 46 57 69 63 66 62 63 61 57 47 39 36 35
75 70 62 55 44 42 40 43 46 52 55 49 50 56 54 56 43 36 39 44 54 69 64 68 64 62 63 56 54 55 47 43
64 66 54 57 44 41 42 48 50 58 55 53 55 54 57 60 39 36 38 44 51 60 64 63 69 59 65 63 59 58 49 44
55 53 52 54 45 49 47 52 53 54 55 54 54 57 59 51 36 37 41 44 50 52 54 55 62 64 47 64 62 56 51 47
48 50 54 53 42 41 51 54 55 54 53 54 56 58 56 42 36 40 43 48 47 50 54 54 52 55 57 50 56 57 56 49
45 53 49 42 33 43 55 53 52 53 53 53 57 54 45 37 38 42 45 47 49 51 47 45 45 52 51 50 50 52 55 51
46 43 43 27 42 52 51 51 49 53 54 57 57 49 37 38 42 46 43 45 52 52 50 43 41 41 45 48 48 50 55 52
41 41 31 41 42 41 43 46 51 56 58 60 51 35 38 41 44 43 44 42 48 46 46 52 42 43 45 52 49 52 51 56
40 31 33 36 38 44 45 50 56 59 61 47 35 34 38 41 39 42 42 40 40 40 45 46 50 44 45 51 51 52 59 58
34 38 41 34 34 41 50 52 58 59 48 33 30 35 36 38 39 40 39 39 41 40 43 45 48 50 52 51 55 59 57 56
33 29 35 30 31 44 50 55 48 39 30 27 32 34 35 35 37 36 33 36 36 36 39 42 45 51 54 53 56 60 59 56

GFSFLT2_250_spd_093.txt.gz
Wind_Speed
63 63 63 65 65 66 67 60 60 55 53 53 54 53 53 53 54 53 52 46 42 41 43 45 40 31 32 29 24 28 29 16
66 65 68 69 67 71 67 66 62 60 52 51 52 51 50 47 43 42 43 43 42 41 42 48 43 33 34 27 22 21 16 19
71 75 74 71 67 67 69 69 68 62 51 50 49 50 46 40 40 38 39 37 40 39 39 49 44 35 33 28 24 27 27 29
72 73 74 73 71 73 74 75 75 61 50 50 46 46 45 44 37 40 41 35 41 38 35 42 46 34 25 23 36 34 33 30
76 80 80 80 76 77 69 70 64 56 47 46 47 47 46 37 38 40 42 46 45 45 34 45 47 34 37 27 41 36 32 29
74 76 75 77 82 75 63 64 60 56 47 44 42 39 40 37 38 41 43 43 48 47 38 47 51 37 44 36 41 40 34 33
73 77 77 76 81 67 62 60 56 54 46 41 40 39 42 39 39 41 45 48 52 45 41 53 54 43 37 42 44 44 41 33
74 78 77 77 74 65 62 57 53 52 47 45 42 42 42 40 39 43 43 47 50 40 39 52 60 52 45 47 50 44 41 36
73 79 76 77 73 67 60 58 52 52 48 44 41 41 41 40 43 45 44 44 44 36 41 52 68 61 52 50 45 41 42 34
75 77 76 75 73 70 64 59 52 50 49 42 40 40 43 45 43 46 43 45 42 34 42 59 67 63 57 58 47 47 44 38
69 71 78 77 74 71 69 60 49 48 47 41 39 40 48 49 48 48 46 48 40 33 44 61 67 64 65 61 59 54 50 48
63 63 71 74 69 64 59 51 46 43 42 42 40 45 49 47 47 47 50 49 37 34 46 60 69 64 59 58 61 57 57 48
59 60 59 57 65 66 57 51 48 49 43 37 47 47 47 50 50 47 51 46 33 34 45 57 68 66 60 63 62 60 57 57
53 51 50 50 56 63 48 49 47 38 38 44 53 49 47 48 52 48 45 44 30 35 43 52 58 64 68 57 52 53 61 63
43 44 43 47 55 54 44 47 43 37 45 50 48 46 47 47 45 50 55 40 31 37 43 50 59 54 53 66 51 49 52 56
36 40 43 47 52 48 43 45 44 36 48 52 51 48 44 46 52 56 52 35 33 42 43 51 53 48 52 46 61 49 43 48
36 42 42 44 44 39 41 41 50 36 41 46 46 42 47 52 56 56 40 35 38 42 48 49 48 46 44 44 48 46 43 49
36 39 41 42 38 43 43 46 41 36 38 45 43 47 51 60 55 44 37 38 44 45 45 48 52 50 45 43 39 43 46 48
33 40 39 40 42 47 46 38 27 37 41 46 51 55 58 55 43 37 37 39 43 45 42 42 45 56 48 44 42 44 52 55
39 42 45 47 48 42 26 21 29 36 40 47 54 57 47 39 36 37 38 38 39 37 40 38 40 47 52 54 49 46 47 55

GFSFLT2_250_spd_096.txt.gz
Wind_Speed
56 58 61 61 59 58 60 61 63 65 64 59 53 55 56 52 51 50 50 50 49 47 49 50 51 45 29 39 38 40 35 35
58 58 59 61 61 63 63 66 69 71 68 65 60 59 62 55 52 50 47 48 45 44 41 45 49 46 34 31 40 43 38 21
56 58 64 65 64 64 67 68 70 69 67 65 64 61 55 51 51 50 44 43 38 39 36 39 44 42 37 37 35 39 30 19
64 62 63 67 70 68 70 70 70 70 71 72 68 54 50 48 50 49 44 40 35 36 31 38 39 37 36 37 40 37 24 23
68 64 63 65 68 74 73 73 73 71 71 74 66 49 47 47 50 47 42 37 35 33 35 38 37 38 40 39 39 33 36 29
67 66 70 69 68 73 73 72 71 68 69 71 65 48 45 48 48 46 36 34 33 35 37 41 43 39 44 44 39 39 42 37
72 71 71 73 75 69 76 71 71 70 66 65 64 47 44 46 42 41 35 34 33 34 34 42 44 37 47 46 39 42 44 39
76 77 77 77 75 71 68 69 69 67 65 62 61 45 42 45 44 42 36 34 35 35 37 44 44 37 49 50 42 44 44 44
80 81 78 76 75 75 74 69 74 72 65 63 57 46 42 41 43 41 35 33 36 38 38 42 37 34 47 49 45 45 46 48
83 83 82 81 77 71 79 74 72 70 65 61 58 46 43 41 41 43 37 38 38 39 40 40 33 36 52 52 47 47 48 48
85 85 80 79 73 69 75 69 65 66 65 60 57 47 44 41 40 43 40 40 37 38 40 41 31 42 56 56 53 48 50 49
90 82 76 72 70 62 65 65 60 61 60 59 60 50 45 38 43 46 44 40 38 39 41 40 31 45 57 59 58 56 48 53
82 79 74 72 67 59 59 57 56 60 62 62 56 46 41 39 45 41 39 41 38 39 40 35 31 52 62 63 60 68 63 61
73 74 70 67 60 56 55 57 52 50 56 54 45 41 42 39 47 44 40 39 39 39 41 35 32 56 65 65 62 61 63 64
62 59 62 57 55 55 49 51 49 47 50 38 38 39 42 41 43 42 41 40 39 40 42 37 36 53 67 63 55 58 66 62
51 51 51 48 50 46 47 46 46 49 49 40 25 46 54 44 50 46 45 39 40 42 45 36 40 52 63 66 59 53 55 60
43 44 42 42 40 41 41 40 50 51 48 49 56 67 57 51 50 49 42 43 46 49 45 35 41 45 53 56 67 63 47 50
36 37 36 37 38 38 39 44 46 51 54 50 50 50 55 47 40 40 43 48 51 50 38 40 40 45 49 48 52 59 52 49
33 33 34 34 35 32 32 35 43 48 47 48 40 41 43 41 44 48 53 54 54 44 36 40 45 46 47 51 51 53 52 50
29 29 27 27 27 32 37 40 45 45 38 24 32 37 37 40 46 53 54 53 46 34 39 41 41 46 47 48 49 50 54 50

GFSFLT2_250_spd_099.txt.gz
Wind_Speed
54 57 58 55 55 54 52 52 53 57 56 54 51 49 51 56 57 55 53 52 49 47 50 48 47 47 51 50 46 35 39 39
53 57 59 59 59 59 59 57 59 58 57 59 57 55 53 54 55 54 53 52 50 41 43 46 46 45 49 49 49 38 35 37
55 58 60 63 65 66 65 64 60 61 59 59 63 60 58 58 56 58 56 53 49 40 40 42 41 38 42 44 43 38 34 34
60 63 64 64 66 71 70 68 65 63 61 62 61 61 63 61 59 59 58 59 51 39 38 40 37 37 39 41 40 34 35 36
69 69 66 63 63 66 71 71 70 62 63 61 62 62 63 58 58 58 59 56 44 41 39 38 40 39 39 41 38 38 39 40
70 67 66 68 68 66 66 70 71 65 65 61 66 62 61 59 52 47 49 50 41 39 38 39 39 40 42 37 35 41 42 41
70 66 67 65 67 68 68 67 69 70 68 64 58 55 54 56 52 46 45 47 38 35 37 37 41 36 36 37 32 44 46 43
71 73 68 68 68 68 69 72 73 74 70 68 61 58 51 54 50 45 44 45 37 36 37 38 40 39 41 40 33 45 47 44
77 78 76 79 76 73 73 73 75 77 74 72 67 59 56 53 50 43 45 44 41 37 39 39 43 40 41 39 35 45 55 47
81 84 82 79 76 76 79 79 79 78 75 71 64 59 59 51 52 44 44 43 37 37 40 38 39 40 38 35 32 45 52 48
89 91 87 87 86 86 83 82 79 77 76 66 58 55 58 49 47 41 43 43 37 37 42 37 38 37 34 30 37 49 52 51
95 95 96 93 94 92 89 83 77 77 80 64 57 52 54 48 48 41 39 43 36 40 39 39 37 35 33 26 47 52 51 50
99 99 102 102 98 95 87 82 78 75 71 59 53 52 50 44 47 41 40 43 44 39 39 40 38 37 33 30 58 57 55 56
100 101 104 98 87 79 76 71 68 68 59 53 48 48 41 39 44 38 40 44 41 38 35 33 33 39 34 35 61 61 57 59
102 103 90 78 77 74 69 64 56 50 47 47 46 45 35 40 35 37 39 41 40 43 42 36 37 38 35 41 65 66 56 63
92 83 72 70 70 67 63 56 50 46 47 47 43 40 36 35 32 32 40 43 42 38 35 37 37 37 38 42 70 72 57 59
68 64 63 59 56 55 52 45 42 44 45 45 43 42 42 38 34 46 45 53 50 46 39 38 38 39 39 33 73 76 68 59
54 55 49 44 41 41 36 36 38 40 44 44 49 49 48 48 54 55 55 57 44 42 41 41 38 41 41 39 71 76 67 63
44 40 36 32 32 29 27 29 33 38 41 47 57 59 55 53 52 63 61 57 44 46 44 45 44 48 43 44 59 65 62 64
32 30 28 27 24 20 23 24 30 35 40 46 58 54 55 45 48 51 51 49 53 54 50 49 48 45 41 47 60 65 54 64

GFSFLT2_250_spd_105.txt.gz
Wind_Speed
49 50 51 50 47 46 46 45 47 47 49 47 48 48 47 43 49 52 55 58 55 50 49 50 49 49 50 44 43 39 37 36
52 51 51 51 51 53 51 50 49 51 51 52 52 50 47 45 39 47 53 56 54 53 54 54 51 49 48 42 40 36 34 31
53 55 57 55 55 53 52 51 51 52 56 57 55 52 51 50 47 40 47 53 51 56 53 52 52 49 44 43 36 35 32 29
54 56 56 56 56 57 55 55 53 57 61 63 60 55 53 51 52 48 44 49 53 51 54 52 50 45 44 41 33 35 33 29
56 55 55 56 57 57 57 56 59 63 64 66 61 57 56 51 52 55 53 50 53 53 51 47 48 45 43 40 32 34 34 29
58 57 56 58 55 56 58 61 65 65 68 65 63 60 59 55 52 56 57 57 55 53 54 53 49 47 40 39 33 33 37 34
58 59 58 57 57 60 61 63 64 67 69 68 66 67 65 62 57 54 57 59 62 60 55 56 50 48 38 35 35 35 38 37
60 61 61 60 60 60 62 67 69 70 70 69 69 72 70 66 61 55 55 57 65 63 60 54 55 48 41 35 35 36 37 39
63 64 63 62 62 64 66 68 69 70 71 72 73 73 75 70 65 65 65 62 61 64 60 53 56 51 43 38 38 35 37 41
65 64 66 66 67 69 69 68 70 71 72 74 77 77 77 73 71 73 70 70 68 65 62 55 52 53 47 39 39 36 39 41
66 66 68 70 71 72 73 74 75 76 76 76 79 80 79 80 81 79 76 76 73 68 62 57 52 52 48 41 40 40 38 42
73 70 69 70 72 74 76 77 78 79 81 82 82 84 82 82 83 86 84 79 75 71 58 56 49 52 49 43 40 40 40 40
74 73 70 71 71 73 76 78 80 81 82 87 85 86 87 87 91 90 84 80 78 71 60 57 50 57 48 41 39 38 39 39
75 75 76 75 76 79 81 82 84 86 89 92 93 95 94 92 89 88 83 82 74 63 60 56 50 56 46 39 37 37 37 39
77 78 78 80 82 84 85 86 90 93 97 96 100 98 93 91 92 86 79 67 54 50 52 53 53 52 47 39 36 35 35 38
79 79 82 84 87 86 84 88 92 94 96 93 98 93 86 89 85 74 65 45 39 49 52 52 52 50 46 41 38 36 37 33
81 84 86 86 87 88 89 90 92 93 93 91 93 90 74 62 59 55 51 38 42 40 34 44 48 47 47 43 42 38 37 35
84 87 88 87 86 87 88 88 89 87 82 74 67 59 55 51 52 49 44 44 45 42 33 44 49 47 45 44 42 41 43 42
87 87 88 87 88 89 87 85 78 68 61 53 48 51 51 48 47 47 46 50 52 51 49 53 51 47 45 43 42 41 38 36
89 89 88 86 85 83 81 65 60 54 51 46 37 47 39 39 42 47 50 56 58 53 48 48 48 49 46 44 42 41 42 39

GFSFLT2_250_spd_108.txt.gz
Wind_Speed
44 46 46 47 49 48 48 49 49 49 50 48 46 44 44 45 48 49 44 44 44 45 50 50 53 52 49 50 52 47 40 30
49 49 49 50 49 48 50 51 53 53 51 52 51 47 47 49 51 51 47 47 43 39 40 46 48 51 51 47 46 50 41 31
51 52 54 54 52 51 50 51 52 51 54 56 56 52 52 51 54 53 50 49 46 40 39 39 41 45 50 50 49 46 43 32
51 51 56 57 54 53 52 52 53 53 55 55 55 54 53 56 53 51 51 48 48 45 43 40 41 37 40 45 44 43 37 33
57 56 54 53 55 55 56 55 55 55 55 56 58 55 59 56 53 51 53 53 53 49 46 43 44 45 44 39 41 38 38 33
59 57 56 56 54 55 56 55 56 54 54 57 60 57 57 60 59 54 54 57 56 55 49 47 45 46 48 47 38 36 38 34
60 58 60 58 55 55 56 57 56 57 55 53 55 62 65 64 64 57 58 56 58 58 54 51 50 49 51 52 45 37 35 32
61 60 59 59 58 57 57 59 57 59 57 56 59 63 64 64 65 61 59 62 61 60 60 54 54 55 51 52 47 39 33 36
66 68 63 60 59 57 57 60 62 62 63 61 62 64 64 64 64 67 65 62 62 65 63 61 59 59 55 49 50 47 37 40
67 66 65 62 61 62 62 59 61 63 65 65 65 68 67 69 68 67 70 68 65 69 64 65 61 61 61 55 46 49 40 42
69 69 67 66 64 63 64 64 64 65 67 67 65 70 70 71 70 71 73 74 70 71 68 68 64 64 63 59 51 48 43 43
73 70 67 67 67 64 64 64 65 68 69 69 68 67 72 71 70 69 74 75 75 74 70 70 71 69 62 58 55 50 45 46
74 75 72 71 66 66 65 67 70 70 72 72 71 69 71 76 73 75 74 74 79 81 72 71 79 68 63 63 60 53 48 48
78 75 74 72 71 69 69 68 70 73 75 75 77 79 77 82 83 76 74 61 72 77 73 87 75 68 67 62 53 51 49 48
81 79 77 74 74 76 77 79 78 78 78 79 82 84 86 83 82 78 67 46 63 78 93 89 72 72 66 56 56 55 50 49
82 82 83 83 80 81 83 81 79 79 82 85 87 85 81 88 83 76 70 56 69 67 74 94 70 61 56 52 56 55 53 50
86 87 87 87 86 87 85 83 79 81 86 88 90 86 79 85 85 83 81 73 75 81 79 70 72 60 52 56 62 53 56 50
92 89 87 87 86 85 85 83 82 85 89 89 86 82 73 67 58 63 61 62 62 62 29 47 53 60 48 44 50 49 52 47
93 92 87 84 84 84 83 82 83 85 88 85 81 73 56 21 61 80 60 53 52 53 49 63 65 64 52 41 45 51 50 47
91 87 86 85 85 86 84 82 83 83 82 78 74 57 34 43 60 67 61 55 52 48 63 65 62 51 45 39 43 47 48 48

GFSFLT2_250_spd_111.txt.gz
Wind_Speed
46 46 44 44 43 45 44 44 45 45 42 44 46 46 44 44 44 46 48 47 48 47 44 44 41 39 38 39 46 47 47 45
44 44 45 46 47 47 46 47 48 49 48 46 47 48 46 44 46 46 49 49 49 50 42 40 36 38 38 35 38 39 43 45
46 47 48 49 47 47 47 49 51 52 50 48 49 50 49 50 49 46 48 48 51 47 45 42 40 36 37 35 32 36 37 36
49 50 51 49 50 51 52 53 51 49 50 51 51 52 51 50 49 50 47 48 48 50 48 47 45 39 38 40 40 31 31 34
51 48 49 53 51 54 53 53 52 51 51 51 51 52 52 50 50 52 50 45 51 50 50 49 46 45 42 44 41 38 31 30
55 59 55 55 57 56 56 55 53 53 52 52 52 52 52 53 52 48 46 51 53 51 51 50 49 50 47 47 45 40 38 29
59 60 64 57 56 58 57 57 54 55 55 52 53 53 55 54 54 52 55 55 55 54 50 48 51 48 50 52 48 45 38 39
64 62 64 62 60 59 58 59 60 61 55 54 55 57 58 58 58 59 60 57 54 51 52 53 49 50 50 53 53 49 43 40
64 65 67 68 65 66 62 60 58 62 62 61 59 57 60 60 61 60 59 60 60 58 55 53 53 52 53 57 56 52 47 39
72 74 71 69 69 69 64 59 58 59 62 62 65 62 61 62 63 62 62 62 62 62 61 55 56 54 55 56 56 56 53 46
78 75 74 70 67 65 64 62 57 57 58 60 63 67 68 64 65 66 66 63 62 61 61 58 56 52 54 55 60 59 52 50
80 78 76 75 71 67 65 64 61 59 59 61 60 58 61 62 62 64 65 64 61 61 61 60 55 52 56 57 58 58 55 55
83 81 79 77 73 72 68 67 63 62 61 61 61 62 59 62 63 65 66 65 66 63 57 55 47 46 54 59 62 56 66 63
86 85 83 78 76 73 74 70 70 65 62 62 63 65 64 65 70 68 66 62 58 58 46 43 53 62 63 68 66 66 66 54
88 87 85 81 77 76 74 73 71 69 70 68 70 71 72 71 69 68 70 64 56 52 44 39 74 71 59 58 71 75 67 53
89 85 86 84 80 79 77 76 75 74 74 75 75 76 76 76 75 68 63 62 55 51 44 52 58 65 56 69 72 69 65 64
85 88 86 87 87 82 80 78 77 77 78 77 78 79 78 77 75 71 65 57 58 57 50 60 71 74 66 72 79 70 67 72
84 87 88 87 86 86 84 81 79 81 81 81 80 79 80 77 74 68 72 65 54 53 51 53 62 78 81 90 88 84 77 62
85 86 89 92 86 89 85 83 81 83 84 84 81 80 80 80 75 67 72 65 57 55 50 57 62 59 73 87 87 71 62 58
81 78 80 82 84 86 85 84 81 82 84 82 80 81 79 77 72 68 65 57 56 53 48 53 52 58 59 72 66 55 47 57

GFSFLT2_250_spd_114.txt.gz
Wind_Speed
46 46 43 44 44 41 39 40 40 41 41 42 43 44 45 45 44 44 43 44 43 45 46 44 43 44 42 41 40 37 38 40
44 44 42 41 41 40 41 42 43 43 42 42 44 46 46 45 44 43 45 45 46 49 47 46 43 42 42 41 41 37 31 38
39 43 45 44 45 45 45 45 44 43 43 45 46 46 45 45 45 45 44 45 47 49 49 46 45 43 43 45 41 37 36 37
44 40 45 48 48 47 46 47 45 45 45 46 45 46 47 47 47 46 45 43 44 46 47 49 45 48 48 48 42 42 36 39
50 50 51 54 50 47 47 47 46 47 47 47 49 48 48 48 48 47 47 44 43 45 45 47 50 54 52 50 43 45 39 39
55 55 53 53 57 52 52 54 49 50 48 48 49 51 50 51 52 50 49 47 46 44 44 49 54 55 54 46 48 47 45 40
51 54 58 65 62 61 59 59 54 52 50 52 49 48 51 51 51 51 50 50 50 48 50 52 56 53 49 51 51 48 46 43
59 62 64 68 67 61 63 60 56 53 51 52 52 53 52 50 51 53 51 51 53 53 53 53 55 55 54 54 54 50 48 48
66 63 64 70 67 61 60 57 57 58 56 56 55 53 54 53 52 53 52 55 53 56 56 54 53 53 55 56 55 52 49 46
65 68 69 69 69 67 66 63 60 58 59 64 59 55 55 50 51 39 54 55 59 57 58 56 55 56 56 56 52 49 47 46
69 75 74 70 70 71 70 67 64 61 58 58 58 60 62 59 58 51 41 56 62 56 56 54 51 50 50 47 47 49 50 45
74 79 79 75 73 73 72 71 70 64 62 59 59 56 54 54 59 64 61 60 57 54 60 59 56 50 45 41 42 45 50 51
80 81 82 81 78 76 74 74 74 70 68 63 62 59 57 52 56 62 65 65 63 60 60 59 55 55 54 52 49 46 46 51
88 86 85 83 81 79 77 76 75 74 73 71 66 63 61 58 57 55 58 61 61 63 58 57 50 46 51 50 50 50 59 61
90 91 88 84 82 79 79 79 79 76 76 74 72 69 64 63 60 60 61 63 63 64 60 57 53 45 46 41 57 67 74 77
91 95 92 92 86 84 82 81 81 81 79 77 76 73 72 69 66 65 64 64 65 66 63 55 55 55 51 48 43 81 93 74
89 92 92 96 91 92 89 86 85 85 83 82 80 79 77 74 71 70 70 70 71 70 66 57 55 60 60 61 68 74 67 71
83 89 92 95 92 94 96 92 89 89 86 86 83 84 83 78 76 74 75 74 72 75 70 63 58 61 73 71 75 80 82 77
81 88 91 92 91 94 98 90 91 87 88 86 86 86 84 79 78 78 78 78 72 73 70 65 63 63 73 82 82 84 83 82
71 70 73 80 79 87 87 87 88 89 95 97 89 88 87 84 81 79 78 77 72 72 70 64 68 66 68 82 85 85 85 72

GFSFLT2_250_spd_117.txt.gz
Wind_Speed
44 46 46 47 46 45 43 43 44 43 41 39 39 39 37 36 38 41 43 45 45 45 45 44 42 43 44 40 41 42 42 43
43 46 48 46 47 46 43 42 41 40 40 41 41 40 39 39 41 42 43 43 45 46 47 45 44 44 42 40 39 39 44 43
39 43 48 49 46 45 45 46 44 44 44 42 42 42 42 43 41 40 41 43 45 46 46 46 45 43 42 42 37 40 46 46
47 41 44 48 50 48 47 46 47 46 43 39 39 38 41 44 42 41 42 42 45 47 47 46 47 44 43 41 42 45 45 47
54 51 50 51 53 53 52 53 51 50 45 41 42 42 42 38 40 44 45 46 46 48 48 48 46 47 47 47 48 49 49 47
55 55 60 59 59 57 55 52 50 51 49 48 47 46 44 47 43 42 42 44 46 45 48 49 48 48 49 50 51 51 53 51
59 60 64 65 65 64 60 57 52 52 53 55 57 52 51 47 43 42 43 46 46 45 46 48 50 49 49 50 51 51 49 49
65 64 65 65 67 66 60 59 58 56 54 54 53 52 50 50 45 45 46 45 45 43 46 43 45 49 52 53 51 49 46 46
70 66 68 70 71 71 70 66 64 61 59 55 52 52 49 49 50 52 51 37 33 40 47 46 42 48 54 54 47 41 39 41
70 66 69 72 74 75 73 69 67 62 61 57 55 56 55 50 48 47 44 35 32 39 43 51 44 55 60 53 42 42 39 34
76 70 73 73 76 76 71 73 73 70 67 63 60 55 55 53 52 51 50 39 30 41 44 45 50 59 61 50 44 43 40 36
83 79 78 79 79 78 75 74 74 74 72 69 65 66 71 69 62 52 52 54 51 50 54 53 47 51 65 48 51 47 41 39
85 92 84 83 84 82 80 77 76 77 75 73 70 70 70 72 67 68 65 62 61 66 70 61 47 56 64 53 50 48 41 42
86 94 96 91 91 89 86 82 80 79 80 77 75 73 73 71 69 67 68 66 67 68 74 68 66 71 66 53 50 51 42 41
81 86 96 101 97 94 91 87 84 82 82 83 79 78 76 74 71 70 70 67 64 67 71 71 77 73 73 70 64 56 51 50
79 82 88 93 102 101 99 93 90 88 85 84 84 83 80 76 75 73 71 71 69 69 69 69 71 71 72 73 68 69 63 58
71 75 83 88 93 91 96 96 95 93 89 88 85 82 81 79 76 77 75 75 75 74 74 72 73 76 71 71 70 67 69 69
65 67 72 78 88 87 93 96 94 95 96 94 89 86 86 82 80 80 79 81 80 79 77 74 76 76 75 71 69 65 71 78
56 60 66 74 80 83 89 96 97 97 99 97 97 94 91 92 88 85 84 86 87 82 81 80 80 78 76 72 69 67 71 77
49 52 60 68 74 78 83 91 93 101 97 101 95 95 97 98 94 89 91 89 87 87 83 82 82 82 79 76 71 71 75 84

GFSFLT2_250_spd_120.txt.gz
Wind_Speed
42 41 41 44 46 45 44 44 45 43 42 42 44 42 42 42 41 40 40 41 41 41 40 36 33 33 34 35 37 37 34 35
41 37 40 42 45 47 46 46 45 44 44 43 43 40 40 41 41 41 42 44 45 43 39 37 36 36 35 36 37 37 36 35
43 41 40 42 42 45 48 48 46 44 45 45 43 42 42 41 42 42 40 41 42 42 42 41 41 36 35 36 37 38 38 37
50 50 47 46 46 46 46 49 49 47 46 46 46 45 44 42 40 38 37 37 38 39 42 44 41 36 34 33 38 40 40 39
51 52 53 53 53 50 49 50 51 51 51 48 45 46 46 47 44 41 42 43 45 44 42 41 42 38 34 32 34 36 37 39
55 56 57 59 60 60 58 53 53 53 53 52 49 47 50 47 47 46 47 47 47 45 39 36 36 32 32 27 28 29 34 39
65 66 63 63 64 64 67 64 59 58 56 52 50 48 48 46 48 48 47 47 45 48 43 41 29 27 25 27 26 29 34 39
74 75 76 77 74 71 67 71 68 62 61 57 57 54 52 49 47 49 48 45 47 48 46 30 28 29 27 33 38 35 33 37
78 79 81 81 78 77 75 74 71 69 64 63 61 59 59 56 50 48 47 46 45 42 35 34 33 30 32 38 44 34 35 37
79 79 79 80 81 80 77 77 78 71 70 69 68 68 61 57 52 50 49 46 45 44 38 36 30 27 34 37 44 33 37 34
83 80 82 84 83 82 84 85 83 78 75 74 75 74 72 66 55 54 53 49 46 42 41 34 45 44 44 48 37 31 37 40
84 84 82 84 87 85 85 87 90 90 84 79 79 79 77 75 72 66 63 55 50 42 43 44 37 37 45 47 47 40 45 43
88 88 88 89 88 92 92 90 95 94 93 85 81 79 75 76 74 75 68 68 65 65 52 44 42 50 55 50 59 48 42 54
93 91 92 94 94 92 93 96 93 99 99 92 86 83 79 78 75 75 77 74 72 69 69 65 62 61 53 50 62 60 49 54
93 91 90 91 91 87 88 91 93 99 104 102 94 88 83 79 77 78 77 76 77 79 79 79 80 85 85 76 61 63 64 64
87 84 81 81 82 82 83 88 91 96 105 105 101 94 90 87 80 77 77 77 77 77 76 77 79 80 85 87 87 85 71 72
73 71 67 70 71 74 78 83 91 92 103 110 104 104 98 91 85 81 79 77 78 80 79 77 77 77 78 83 83 87 88 84
63 62 62 61 63 67 71 75 80 92 93 105 112 106 99 94 91 87 84 83 80 80 81 79 78 77 77 78 80 78 79 84
55 54 54 55 58 61 69 70 75 85 92 97 105 109 106 100 94 91 90 89 85 84 81 81 81 79 78 79 79 78 78 78
49 46 43 48 52 58 61 67 71 76 85 91 95 102 108 103 99 97 94 91 88 88 85 83 86 85 85 85 81 80 82 80

GFSFLT2_250_spd_123.txt.gz
Wind_Speed
43 40 40 41 40 41 41 43 45 47 46 44 43 42 43 45 44 40 37 38 35 34 35 36 36 35 35 35 33 31 29 29
41 39 36 38 40 41 41 41 44 46 46 46 45 44 44 44 45 41 37 38 36 34 33 32 32 33 38 37 35 33 30 30
44 43 42 39 42 43 43 44 42 43 46 47 45 45 45 44 43 40 39 38 39 33 29 28 32 33 36 37 33 32 30 30
46 48 46 49 54 54 51 48 47 43 44 46 47 47 45 45 44 43 42 39 36 34 33 34 35 35 31 31 32 31 28 24
53 54 54 55 56 52 53 52 52 52 48 44 46 47 48 47 45 45 44 42 42 39 37 39 37 33 29 31 27 29 23 18
56 54 54 57 58 58 59 61 59 59 59 55 49 47 48 49 49 48 50 47 45 45 40 40 39 34 30 30 26 26 22 22
63 63 63 64 65 68 65 67 70 65 63 63 61 56 50 50 51 52 49 49 46 44 42 40 38 38 32 26 26 29 27 26
66 67 67 68 71 74 76 77 77 75 73 69 67 66 61 52 53 52 49 49 50 47 41 39 39 36 28 31 28 29 27 28
73 75 75 75 75 78 81 81 82 81 79 76 70 70 69 65 56 55 55 56 55 49 44 39 37 32 31 35 34 30 29 39
78 80 81 83 82 83 84 84 80 79 84 80 73 70 70 74 64 55 59 60 58 55 50 48 42 34 30 31 32 39 40 34
83 85 86 87 87 88 87 83 82 80 80 84 81 74 72 73 76 70 63 63 63 57 53 50 44 35 34 30 33 35 38 44
86 89 92 94 95 92 87 84 82 82 82 84 86 84 78 74 78 80 74 72 65 57 59 57 50 38 32 28 36 39 38 47
93 95 95 96 93 93 90 86 83 84 85 86 88 89 85 82 80 86 84 81 80 75 65 52 41 44 42 39 33 50 47 45
99 100 99 97 94 95 96 96 93 89 90 90 90 91 92 89 85 85 90 89 86 83 79 70 61 51 44 46 64 51 51 55
100 99 98 98 98 96 96 96 94 94 92 92 93 95 97 96 93 89 89 94 92 89 86 84 80 80 76 73 64 65 61 59
100 99 100 100 100 91 89 90 90 91 92 90 91 96 98 100 99 97 93 93 96 91 87 88 86 84 84 81 80 81 68 64
101 100 100 95 91 83 80 79 78 82 81 83 83 88 95 98 100 99 100 98 97 96 90 86 87 88 87 86 87 88 82 83
102 95 90 82 78 70 69 67 66 68 68 72 74 81 86 94 97 99 102 102 99 96 93 90 89 89 88 88 91 94 92 95
86 87 77 66 62 61 59 58 58 60 59 62 70 73 80 86 93 96 98 103 101 97 95 90 89 87 87 88 88 87 89 86
74 75 64 55 51 53 49 51 54 57 56 64 64 67 74 79 83 91 97 99 102 99 96 94 87 87 86 86 85 84 85 82

GFSFLT2_250_spd_126.txt.gz
Wind_Speed
50 51 51 49 46 47 48 47 46 45 46 46 46 47 46 46 42 41 41 42 42 40 38 36 33 32 33 32 33 35 35 34
47 48 48 47 45 44 42 42 43 43 44 46 47 48 49 47 45 44 43 43 42 40 39 37 35 31 29 30 31 35 32 31
47 47 46 47 46 45 44 41 39 41 44 47 48 47 48 49 48 46 43 42 41 39 38 36 35 32 30 32 32 32 28 31
49 50 51 49 45 49 50 50 47 45 44 46 46 48 48 49 49 48 46 45 41 40 41 37 36 35 34 35 34 31 30 30
53 56 58 60 60 57 57 59 57 51 47 48 49 49 49 49 52 54 48 45 45 43 42 40 39 39 37 38 36 34 34 29
59 62 64 66 65 65 64 61 60 57 53 50 50 51 53 57 54 52 54 50 47 45 44 45 44 44 39 39 38 35 36 30
68 68 69 69 68 70 70 70 69 64 61 59 58 58 57 55 61 59 53 53 52 49 46 45 47 44 44 42 40 36 33 33
71 71 73 72 72 73 72 72 73 74 72 68 65 65 67 64 61 66 62 57 56 50 48 46 45 46 45 43 39 37 35 33
71 74 76 77 77 78 79 79 78 78 78 76 75 74 72 71 68 63 67 64 61 57 51 49 48 52 48 47 42 34 36 36
77 79 79 80 82 83 81 81 83 85 85 84 82 80 78 77 72 67 65 66 65 66 59 54 55 56 52 47 40 33 33 34
78 79 81 83 85 85 86 87 86 88 89 90 90 87 84 79 74 71 68 67 69 68 66 63 57 59 59 53 42 38 37 33
80 82 83 85 88 90 93 93 91 92 92 91 91 89 86 82 77 75 76 74 71 72 73 70 65 63 57 50 38 39 38 37
78 83 88 91 94 95 94 96 94 93 93 92 91 92 89 84 81 79 78 77 78 74 74 76 69 67 64 54 50 63 51 42
92 93 95 96 97 98 99 100 101 100 98 96 94 91 90 92 90 85 84 82 82 83 81 81 82 74 71 67 60 60 56 64
96 97 97 97 99 101 102 104 104 103 102 101 99 96 94 93 91 91 92 90 88 84 87 87 86 84 75 71 62 67 68 70
96 98 100 101 103 104 102 101 103 105 102 100 98 94 91 92 90 93 94 95 93 90 88 91 89 89 89 73 67 65 74 75
98 102 104 105 106 106 103 103 98 96 95 93 90 86 86 86 85 85 90 96 96 95 91 91 95 92 94 95 93 81 80 73
104 104 101 99 98 97 94 90 86 85 83 81 77 74 78 76 77 81 83 89 96 98 97 92 94 96 97 98 100 99 88 84
103 100 95 90 89 85 86 74 74 73 71 70 66 60 65 67 68 71 75 82 88 94 100 98 95 97 98 99 101 105 104 102
93 87 82 76 80 78 76 67 64 63 59 55 55 52 54 61 64 64 68 71 78 87 94 96 96 98 100 97 99 102 105 107

GFSFLT2_250_spd_129.txt.gz
Wind_Speed
50 46 47 49 51 52 48 46 44 44 44 45 44 48 49 48 47 47 48 46 43 43 44 42 41 42 40 39 37 35 32 29
49 48 50 51 51 48 46 44 45 42 40 38 38 37 40 45 46 48 48 49 47 45 44 44 42 41 41 39 36 33 30 29
51 53 53 51 51 49 48 47 48 47 44 43 39 40 40 41 43 45 47 45 48 47 45 44 42 42 40 39 36 34 32 30
52 56 55 54 53 53 51 49 47 48 48 48 49 49 46 40 43 43 43 43 45 49 50 45 43 41 41 40 39 37 34 33
57 59 57 56 54 56 56 58 59 58 59 54 56 57 57 49 43 44 43 43 43 46 50 52 48 44 43 42 40 39 37 38
57 61 59 57 59 62 63 64 62 61 62 61 59 61 60 57 52 50 48 46 47 46 47 48 46 43 43 44 44 43 41 37
64 61 63 62 64 68 70 71 72 68 66 63 61 60 59 55 51 52 52 52 50 50 51 51 48 48 43 42 44 45 44 43
68 67 67 67 69 72 74 76 75 74 75 71 69 67 66 64 63 62 62 60 59 56 57 56 55 52 52 46 45 43 42 43
69 70 71 69 70 72 72 72 73 75 79 79 78 75 72 70 68 67 66 67 66 62 56 59 60 56 53 53 49 48 45 42
65 66 71 73 73 77 81 82 81 80 76 79 85 84 81 78 76 72 69 72 72 71 70 61 62 57 52 56 57 52 47 45
63 71 74 80 83 86 86 85 87 86 85 87 87 86 85 87 85 84 80 80 80 77 74 66 68 62 41 63 68 60 50 43
69 70 74 79 82 87 89 89 88 90 90 90 92 93 95 96 92 87 83 79 78 80 78 74 69 74 71 70 68 65 54 47
73 76 79 84 85 87 90 90 87 89 91 96 100 101 100 101 96 91 89 89 80 73 76 76 78 80 78 74 69 66 58 55
78 80 81 84 87 91 95 98 100 103 106 106 107 105 103 102 99 98 97 95 91 84 76 78 76 83 86 82 75 75 67 65
83 85 86 88 90 93 97 102 106 106 108 108 108 107 106 105 104 103 100 99 97 93 88 80 80 81 90 93 85 81 83 77
89 90 90 91 93 95 96 97 99 102 104 106 108 109 110 111 110 108 105 103 100 99 97 90 85 85 87 94 95 87 84 85
89 91 92 95 97 98 99 102 105 106 107 110 114 109 107 105 104 102 100 97 95 94 93 93 91 87 89 94 98 97 91 90
97 98 99 101 102 104 106 106 107 108 107 104 99 97 94 94 90 87 85 83 81 82 81 85 86 86 90 93 100 101 100 97
101 102 103 104 104 102 100 95 90 86 86 85 82 83 80 77 73 71 72 73 73 73 72 75 78 80 86 93 95 105 108 105
103 101 100 96 91 86 83 80 75 76 76 74 73 72 68 65 62 61 62 63 65 66 67 67 72 75 80 85 93 99 109 110

GFSFLT2_250_spd_132.txt.gz
Wind_Speed
38 40 41 44 48 49 49 50 51 50 46 41 39 40 39 37 33 35 37 39 42 42 43 44 43 42 40 40 38 39 39 40
40 42 40 43 43 47 51 53 51 49 46 43 43 41 42 42 40 37 35 35 35 36 39 40 42 42 38 39 40 39 37 37
41 45 45 40 43 46 49 50 52 52 51 46 47 44 45 45 42 41 41 39 38 40 40 38 36 37 40 38 36 37 37 35
45 47 46 49 50 50 53 53 51 51 50 50 49 50 49 46 47 48 50 50 48 43 42 41 38 36 37 39 37 35 37 36
49 51 51 52 55 51 54 53 52 50 51 52 53 59 57 57 51 51 50 48 45 42 41 41 44 40 37 36 39 37 35 37
52 53 56 57 60 60 59 58 56 54 51 55 58 57 59 57 57 55 55 54 51 47 45 44 41 39 42 39 37 38 37 39
53 57 60 62 65 66 65 63 63 59 58 59 61 60 60 59 57 50 45 50 48 48 48 48 48 46 44 43 41 39 39 39
57 57 60 64 66 68 69 70 67 66 62 63 70 70 68 68 64 68 64 63 61 55 54 50 48 47 44 47 46 43 43 44
58 60 62 63 65 67 67 68 70 69 69 67 64 64 68 72 76 74 72 70 68 63 63 62 57 51 44 38 46 45 44 46
60 60 63 66 66 68 76 73 71 70 72 76 80 80 77 77 76 73 73 70 67 65 66 66 69 67 58 33 55 37 38 53
63 63 67 69 68 69 70 71 71 76 85 88 87 84 85 88 87 85 84 80 74 69 69 72 74 74 72 71 60 57 41 55
70 72 72 70 70 72 75 75 76 80 83 86 88 88 89 88 88 87 87 89 88 86 82 78 80 82 81 77 78 73 62 61
73 74 78 76 74 75 76 82 84 83 84 87 88 89 93 94 93 91 90 92 93 94 93 90 82 82 88 87 83 79 68 70
77 80 82 82 79 79 81 84 84 86 87 89 92 94 95 98 100 103 105 105 105 105 102 93 86 83 83 92 90 86 81 76
81 84 85 88 83 80 82 84 86 90 91 94 94 96 97 99 101 102 104 105 104 101 99 95 87 83 83 87 93 95 90 97
90 90 91 94 93 91 91 92 93 93 96 100 99 100 98 101 101 101 102 102 101 100 99 98 96 96 87 86 90 91 95 96
95 96 99 99 96 98 101 102 101 99 100 100 102 104 106 107 109 108 109 107 106 105 104 101 98 97 93 85 87 93 95 103
101 104 106 102 101 105 107 105 100 94 92 91 94 96 99 103 106 107 105 103 101 99 97 92 92 90 89 90 89 90 97 103
108 107 102 104 108 109 106 100 93 86 82 79 78 81 86 88 88 87 86 81 78 77 78 77 77 80 80 83 83 83 89 99
109 104 108 110 110 108 101 92 87 81 74 70 68 70 76 77 74 73 70 69 66 67 68 68 71 73 71 72 74 77 81 90